Wetterdaten: Freitag, 15.08.2014
Datum Zeit Temp. Aussen +5cm Feuchte Auss Luftdruck Regen Sonnenschein Regendauer UV Solar Windben
15.08.2014 00:00 14,7 C 13,3 C 91 % 1010,6 hPa 0,0 l/m 0 min 0 min 0,0 UV-I 0 W/m 7,1 km/h (2 Bft)
15.08.2014 00:02 14,7 C 13,3 C 91 % 1010,6 hPa 0,0 l/m 0 min 0 min 0,0 UV-I 0 W/m 7,1 km/h (2 Bft)
15.08.2014 00:06 14,7 C 13,3 C 91 % 1010,6 hPa 0,0 l/m 0 min 0 min 0,0 UV-I 0 W/m 10,7 km/h (2 Bft)
15.08.2014 00:08 14,7 C 13,9 C 91 % 1010,6 hPa 0,0 l/m 0 min 0 min 0,0 UV-I 0 W/m 0,0 km/h (0 Bft)
15.08.2014 00:10 14,7 C 13,9 C 91 % 1010,7 hPa 0,0 l/m 0 min 0 min 0,0 UV-I 0 W/m 0,0 km/h (0 Bft)
15.08.2014 00:12 14,7 C 13,9 C 91 % 1010,7 hPa 0,0 l/m 0 min 0 min 0,0 UV-I 0 W/m 0,0 km/h (0 Bft)
15.08.2014 00:14 14,7 C 13,3 C 91 % 1010,8 hPa 0,0 l/m 0 min 0 min 0,0 UV-I 0 W/m 0,0 km/h (0 Bft)
15.08.2014 00:16 14,7 C 13,3 C 91 % 1010,8 hPa 0,0 l/m 0 min 0 min 0,0 UV-I 0 W/m 0,0 km/h (0 Bft)
15.08.2014 00:18 14,7 C 13,3 C 91 % 1010,6 hPa 0,0 l/m 0 min 0 min 0,0 UV-I 0 W/m 10,7 km/h (2 Bft)
15.08.2014 00:20 14,7 C 13,3 C 91 % 1010,7 hPa 0,0 l/m 0 min 0 min 0,0 UV-I 0 W/m 0,0 km/h (0 Bft)
15.08.2014 00:22 14,7 C 13,3 C 91 % 1010,6 hPa 0,0 l/m 0 min 0 min 0,0 UV-I 0 W/m 0,0 km/h (0 Bft)
15.08.2014 00:24 14,7 C 13,3 C 91 % 1010,6 hPa 0,0 l/m 0 min 0 min 0,0 UV-I 0 W/m 10,7 km/h (2 Bft)
15.08.2014 00:26 14,7 C 13,3 C 91 % 1010,6 hPa 0,0 l/m 0 min 0 min 0,0 UV-I 0 W/m 14,2 km/h (3 Bft)
15.08.2014 00:28 14,7 C 13,3 C 91 % 1010,6 hPa 0,0 l/m 0 min 0 min 0,0 UV-I 0 W/m 3,5 km/h (1 Bft)
15.08.2014 00:30 14,7 C 13,9 C 91 % 1010,6 hPa 0,0 l/m 0 min 0 min 0,0 UV-I 0 W/m 10,7 km/h (2 Bft)
15.08.2014 00:32 14,7 C 13,9 C 91 % 1010,6 hPa 0,0 l/m 0 min 0 min 0,0 UV-I 0 W/m 7,1 km/h (2 Bft)
15.08.2014 00:34 14,7 C 13,3 C 91 % 1010,5 hPa 0,0 l/m 0 min 0 min 0,0 UV-I 0 W/m 14,2 km/h (3 Bft)
15.08.2014 00:36 14,7 C 13,3 C 91 % 1010,5 hPa 0,0 l/m 0 min 0 min 0,0 UV-I 0 W/m 10,7 km/h (2 Bft)
15.08.2014 00:38 14,7 C 13,3 C 91 % 1010,4 hPa 0,0 l/m 0 min 0 min 0,0 UV-I 0 W/m 17,7 km/h (3 Bft)
15.08.2014 00:40 14,7 C 13,3 C 91 % 1010,5 hPa 0,0 l/m 0 min 0 min 0,0 UV-I 0 W/m 21,3 km/h (4 Bft)
15.08.2014 00:42 14,7 C 13,9 C 91 % 1010,5 hPa 0,0 l/m 0 min 0 min 0,0 UV-I 0 W/m 17,7 km/h (3 Bft)
15.08.2014 00:44 14,7 C 13,3 C 91 % 1010,5 hPa 0,0 l/m 0 min 0 min 0,0 UV-I 0 W/m 14,2 km/h (3 Bft)
15.08.2014 00:46 14,7 C 13,9 C 91 % 1010,4 hPa 0,0 l/m 0 min 0 min 0,0 UV-I 0 W/m 17,7 km/h (3 Bft)
15.08.2014 00:48 14,7 C 13,9 C 91 % 1010,5 hPa 0,0 l/m 0 min 0 min 0,0 UV-I 0 W/m 17,7 km/h (3 Bft)
15.08.2014 00:50 14,7 C 13,9 C 91 % 1010,5 hPa 0,0 l/m 0 min 0 min 0,0 UV-I 0 W/m 10,7 km/h (2 Bft)
15.08.2014 00:52 14,7 C 13,9 C 91 % 1010,5 hPa 0,0 l/m 0 min 0 min 0,0 UV-I 0 W/m 3,5 km/h (1 Bft)
15.08.2014 00:54 14,7 C 13,3 C 91 % 1010,5 hPa 0,0 l/m 0 min 0 min 0,0 UV-I 0 W/m 0,0 km/h (0 Bft)
15.08.2014 00:56 14,7 C 13,3 C 91 % 1010,5 hPa 0,0 l/m 0 min 0 min 0,0 UV-I 0 W/m 0,0 km/h (0 Bft)
15.08.2014 00:58 14,6 C 13,3 C 91 % 1010,5 hPa 0,0 l/m 0 min 0 min 0,0 UV-I 0 W/m 0,0 km/h (0 Bft)
15.08.2014 01:00 14,6 C 13,3 C 91 % 1010,5 hPa 0,0 l/m 0 min 0 min 0,0 UV-I 0 W/m 10,7 km/h (2 Bft)
15.08.2014 01:02 14,6 C 13,3 C 91 % 1010,5 hPa 0,0 l/m 0 min 0 min 0,0 UV-I 0 W/m 10,7 km/h (2 Bft)
15.08.2014 01:04 14,6 C 13,3 C 91 % 1010,5 hPa 0,0 l/m 0 min 0 min 0,0 UV-I 0 W/m 0,0 km/h (0 Bft)
15.08.2014 01:06 14,6 C 13,3 C 91 % 1010,5 hPa 0,0 l/m 0 min 0 min 0,0 UV-I 0 W/m 0,0 km/h (0 Bft)
15.08.2014 01:08 14,6 C 13,3 C 91 % 1010,5 hPa 0,0 l/m 0 min 0 min 0,0 UV-I 0 W/m 7,1 km/h (2 Bft)
15.08.2014 01:10 14,5 C 13,3 C 91 % 1010,5 hPa 0,0 l/m 0 min 0 min 0,0 UV-I 0 W/m 0,0 km/h (0 Bft)
15.08.2014 01:12 14,5 C 13,3 C 91 % 1010,4 hPa 0,0 l/m 0 min 0 min 0,0 UV-I 0 W/m 0,0 km/h (0 Bft)
15.08.2014 01:14 14,6 C 13,3 C 91 % 1010,5 hPa 0,0 l/m 0 min 0 min 0,0 UV-I 0 W/m 7,1 km/h (2 Bft)
15.08.2014 01:16 14,6 C 13,3 C 91 % 1010,5 hPa 0,0 l/m 0 min 0 min 0,0 UV-I 0 W/m 14,2 km/h (3 Bft)
15.08.2014 01:18 14,6 C 13,3 C 91 % 1010,5 hPa 0,0 l/m 0 min 0 min 0,0 UV-I 0 W/m 0,0 km/h (0 Bft)
15.08.2014 01:20 14,6 C 13,3 C 91 % 1010,5 hPa 0,0 l/m 0 min 0 min 0,0 UV-I 0 W/m 14,2 km/h (3 Bft)
15.08.2014 01:22 14,6 C 13,3 C 91 % 1010,5 hPa 0,0 l/m 0 min 0 min 0,0 UV-I 0 W/m 14,2 km/h (3 Bft)
15.08.2014 01:24 14,6 C 13,3 C 91 % 1010,5 hPa 0,0 l/m 0 min 0 min 0,0 UV-I 0 W/m 0,0 km/h (0 Bft)
15.08.2014 01:26 14,6 C 13,3 C 91 % 1010,5 hPa 0,0 l/m 0 min 0 min 0,0 UV-I 0 W/m 10,7 km/h (2 Bft)
15.08.2014 01:28 14,6 C 13,3 C 91 % 1010,5 hPa 0,0 l/m 0 min 0 min 0,0 UV-I 0 W/m 7,1 km/h (2 Bft)
15.08.2014 01:30 14,6 C 13,3 C 91 % 1010,5 hPa 0,0 l/m 0 min 0 min 0,0 UV-I 0 W/m 0,0 km/h (0 Bft)
15.08.2014 01:32 14,6 C 13,3 C 91 % 1010,5 hPa 0,0 l/m 0 min 0 min 0,0 UV-I 0 W/m 0,0 km/h (0 Bft)
15.08.2014 01:34 14,5 C 13,3 C 91 % 1010,5 hPa 0,0 l/m 0 min 0 min 0,0 UV-I 0 W/m 0,0 km/h (0 Bft)
15.08.2014 01:36 14,5 C 13,3 C 91 % 1010,5 hPa 0,0 l/m 0 min 0 min 0,0 UV-I 0 W/m 0,0 km/h (0 Bft)
15.08.2014 01:38 14,5 C 13,3 C 91 % 1010,4 hPa 0,0 l/m 0 min 0 min 0,0 UV-I 0 W/m 10,7 km/h (2 Bft)
15.08.2014 01:40 14,5 C 13,3 C 91 % 1010,4 hPa 0,0 l/m 0 min 0 min 0,0 UV-I 0 W/m 10,7 km/h (2 Bft)
15.08.2014 01:42 14,5 C 13,3 C 91 % 1010,4 hPa 0,0 l/m 0 min 0 min 0,0 UV-I 0 W/m 10,7 km/h (2 Bft)
15.08.2014 01:44 14,5 C 13,3 C 91 % 1010,4 hPa 0,0 l/m 0 min 0 min 0,0 UV-I 0 W/m 17,7 km/h (3 Bft)
15.08.2014 01:46 14,4 C 13,3 C 91 % 1010,4 hPa 0,0 l/m 0 min 0 min 0,0 UV-I 0 W/m 10,7 km/h (2 Bft)
15.08.2014 01:48 14,4 C 13,3 C 91 % 1010,4 hPa 0,0 l/m 0 min 0 min 0,0 UV-I 0 W/m 7,1 km/h (2 Bft)
15.08.2014 01:50 14,4 C 13,3 C 91 % 1010,4 hPa 0,0 l/m 0 min 0 min 0,0 UV-I 0 W/m 0,0 km/h (0 Bft)
15.08.2014 01:52 14,4 C 13,3 C 91 % 1010,3 hPa 0,0 l/m 0 min 0 min 0,0 UV-I 0 W/m 14,2 km/h (3 Bft)
15.08.2014 01:54 14,4 C 13,3 C 92 % 1010,4 hPa 0,0 l/m 0 min 0 min 0,0 UV-I 0 W/m 10,7 km/h (2 Bft)
15.08.2014 01:56 14,3 C 13,3 C 91 % 1010,4 hPa 0,0 l/m 0 min 0 min 0,0 UV-I 0 W/m 10,7 km/h (2 Bft)
15.08.2014 01:58 14,4 C 13,3 C 91 % 1010,4 hPa 0,0 l/m 0 min 0 min 0,0 UV-I 0 W/m 10,7 km/h (2 Bft)
15.08.2014 02:00 14,3 C 13,3 C 91 % 1010,4 hPa 0,0 l/m 0 min 0 min 0,0 UV-I 0 W/m 10,7 km/h (2 Bft)
15.08.2014 02:02 14,3 C 13,3 C 91 % 1010,4 hPa 0,0 l/m 0 min 0 min 0,0 UV-I 0 W/m 14,2 km/h (3 Bft)
15.08.2014 02:04 14,2 C 13,3 C 91 % 1010,4 hPa 0,0 l/m 0 min 0 min 0,0 UV-I 0 W/m 7,1 km/h (2 Bft)
15.08.2014 02:06 14,2 C 13,3 C 91 % 1010,4 hPa 0,0 l/m 0 min 0 min 0,0 UV-I 0 W/m 0,0 km/h (0 Bft)
15.08.2014 02:08 14,2 C 12,8 C 92 % 1010,4 hPa 0,0 l/m 0 min 0 min 0,0 UV-I 0 W/m 7,1 km/h (2 Bft)
15.08.2014 02:10 14,2 C 12,8 C 92 % 1010,3 hPa 0,0 l/m 0 min 0 min 0,0 UV-I 0 W/m 0,0 km/h (0 Bft)
15.08.2014 02:12 14,2 C 12,8 C 92 % 1010,4 hPa 0,0 l/m 0 min 0 min 0,0 UV-I 0 W/m 7,1 km/h (2 Bft)
15.08.2014 02:14 14,2 C 12,8 C 92 % 1010,4 hPa 0,0 l/m 0 min 0 min 0,0 UV-I 0 W/m 14,2 km/h (3 Bft)
15.08.2014 02:16 14,2 C 12,8 C 92 % 1010,4 hPa 0,0 l/m 0 min 0 min 0,0 UV-I 0 W/m 3,5 km/h (1 Bft)
15.08.2014 02:18 14,2 C 12,8 C 92 % 1010,4 hPa 0,0 l/m 0 min 0 min 0,0 UV-I 0 W/m 0,0 km/h (0 Bft)
15.08.2014 02:20 14,1 C 12,8 C 92 % 1010,4 hPa 0,0 l/m 0 min 0 min 0,0 UV-I 0 W/m 0,0 km/h (0 Bft)
15.08.2014 02:22 14,1 C 12,8 C 92 % 1010,3 hPa 0,0 l/m 0 min 0 min 0,0 UV-I 0 W/m 21,3 km/h (4 Bft)
15.08.2014 02:24 14,0 C 12,8 C 92 % 1010,3 hPa 0,0 l/m 0 min 0 min 0,0 UV-I 0 W/m 7,1 km/h (2 Bft)
15.08.2014 02:26 14,0 C 12,8 C 92 % 1010,3 hPa 0,0 l/m 0 min 0 min 0,0 UV-I 0 W/m 7,1 km/h (2 Bft)
15.08.2014 02:28 13,9 C 12,8 C 92 % 1010,3 hPa 0,0 l/m 0 min 0 min 0,0 UV-I 0 W/m 14,2 km/h (3 Bft)
15.08.2014 02:30 13,9 C 12,8 C 92 % 1010,3 hPa 0,0 l/m 0 min 0 min 0,0 UV-I 0 W/m 10,7 km/h (2 Bft)
15.08.2014 02:32 13,9 C 12,8 C 92 % 1010,3 hPa 0,0 l/m 0 min 0 min 0,0 UV-I 0 W/m 14,2 km/h (3 Bft)
15.08.2014 02:34 13,8 C 12,8 C 92 % 1010,3 hPa 0,0 l/m 0 min 0 min 0,0 UV-I 0 W/m 14,2 km/h (3 Bft)
15.08.2014 02:36 13,8 C 12,8 C 92 % 1010,3 hPa 0,0 l/m 0 min 0 min 0,0 UV-I 0 W/m 0,0 km/h (0 Bft)
15.08.2014 02:38 13,8 C 12,8 C 92 % 1010,3 hPa 0,0 l/m 0 min 0 min 0,0 UV-I 0 W/m 0,0 km/h (0 Bft)
15.08.2014 02:40 13,8 C 12,2 C 93 % 1010,3 hPa 0,0 l/m 0 min 0 min 0,0 UV-I 0 W/m 17,7 km/h (3 Bft)
15.08.2014 02:42 13,7 C 12,2 C 93 % 1010,3 hPa 0,0 l/m 0 min 0 min 0,0 UV-I 0 W/m 14,2 km/h (3 Bft)
15.08.2014 02:44 13,7 C 12,2 C 92 % 1010,3 hPa 0,0 l/m 0 min 0 min 0,0 UV-I 0 W/m 17,7 km/h (3 Bft)
15.08.2014 02:46 13,6 C 12,2 C 93 % 1010,3 hPa 0,0 l/m 0 min 0 min 0,0 UV-I 0 W/m 14,2 km/h (3 Bft)
15.08.2014 02:48 13,6 C 12,2 C 93 % 1010,3 hPa 0,0 l/m 0 min 0 min 0,0 UV-I 0 W/m 10,7 km/h (2 Bft)
15.08.2014 02:50 13,6 C 12,2 C 93 % 1010,3 hPa 0,0 l/m 0 min 0 min 0,0 UV-I 0 W/m 0,0 km/h (0 Bft)
15.08.2014 02:52 13,6 C 12,2 C 93 % 1010,4 hPa 0,0 l/m 0 min 0 min 0,0 UV-I 0 W/m 0,0 km/h (0 Bft)
15.08.2014 02:54 13,5 C 12,2 C 93 % 1010,3 hPa 0,0 l/m 0 min 0 min 0,0 UV-I 0 W/m 0,0 km/h (0 Bft)
15.08.2014 02:56 13,5 C 12,2 C 93 % 1010,3 hPa 0,0 l/m 0 min 0 min 0,0 UV-I 0 W/m 3,5 km/h (1 Bft)
15.08.2014 02:58 13,4 C 12,2 C 93 % 1010,3 hPa 0,0 l/m 0 min 0 min 0,0 UV-I 0 W/m 0,0 km/h (0 Bft)
15.08.2014 03:00 13,4 C 12,2 C 93 % 1010,4 hPa 0,0 l/m 0 min 0 min 0,0 UV-I 0 W/m 0,0 km/h (0 Bft)
15.08.2014 03:02 13,4 C 12,2 C 93 % 1010,3 hPa 0,0 l/m 0 min 0 min 0,0 UV-I 0 W/m 0,0 km/h (0 Bft)
15.08.2014 03:04 13,4 C 12,2 C 93 % 1010,3 hPa 0,0 l/m 0 min 0 min 0,0 UV-I 0 W/m 0,0 km/h (0 Bft)
15.08.2014 03:06 13,3 C 12,2 C 93 % 1010,3 hPa 0,0 l/m 0 min 0 min 0,0 UV-I 0 W/m 0,0 km/h (0 Bft)
15.08.2014 03:08 13,3 C 12,2 C 93 % 1010,3 hPa 0,0 l/m 0 min 0 min 0,0 UV-I 0 W/m 14,2 km/h (3 Bft)
15.08.2014 03:10 13,3 C 12,2 C 93 % 1010,3 hPa 0,0 l/m 0 min 0 min 0,0 UV-I 0 W/m 0,0 km/h (0 Bft)
15.08.2014 03:12 13,3 C 12,2 C 93 % 1010,3 hPa 0,0 l/m 0 min 0 min 0,0 UV-I 0 W/m 3,5 km/h (1 Bft)
15.08.2014 03:14 13,2 C 12,2 C 93 % 1010,3 hPa 0,0 l/m 0 min 0 min 0,0 UV-I 0 W/m 0,0 km/h (0 Bft)
15.08.2014 03:16 13,2 C 11,7 C 93 % 1010,3 hPa 0,0 l/m 0 min 0 min 0,0 UV-I 0 W/m 17,7 km/h (3 Bft)
15.08.2014 03:18 13,2 C 11,7 C 93 % 1010,3 hPa 0,0 l/m 0 min 0 min 0,0 UV-I 0 W/m 17,7 km/h (3 Bft)
15.08.2014 03:20 13,1 C 11,7 C 93 % 1010,3 hPa 0,0 l/m 0 min 0 min 0,0 UV-I 0 W/m 14,2 km/h (3 Bft)
15.08.2014 03:22 13,1 C 11,7 C 94 % 1010,3 hPa 0,0 l/m 0 min 0 min 0,0 UV-I 0 W/m 7,1 km/h (2 Bft)
15.08.2014 03:24 13,1 C 11,7 C 94 % 1010,3 hPa 0,0 l/m 0 min 0 min 0,0 UV-I 0 W/m 0,0 km/h (0 Bft)
15.08.2014 03:26 13,1 C 11,7 C 94 % 1010,3 hPa 0,0 l/m 0 min 0 min 0,0 UV-I 0 W/m 10,7 km/h (2 Bft)
15.08.2014 03:28 13,1 C 11,7 C 93 % 1010,2 hPa 0,0 l/m 0 min 0 min 0,0 UV-I 0 W/m 10,7 km/h (2 Bft)
15.08.2014 03:30 13,1 C 11,7 C 93 % 1010,2 hPa 0,0 l/m 0 min 0 min 0,0 UV-I 0 W/m 3,5 km/h (1 Bft)
15.08.2014 03:32 13,1 C 11,7 C 94 % 1010,2 hPa 0,0 l/m 0 min 0 min 0,0 UV-I 0 W/m 3,5 km/h (1 Bft)
15.08.2014 03:34 13,1 C 11,7 C 93 % 1010,2 hPa 0,0 l/m 0 min 0 min 0,0 UV-I 0 W/m 0,0 km/h (0 Bft)
15.08.2014 03:36 13,1 C 11,7 C 93 % 1010,2 hPa 0,0 l/m 0 min 0 min 0,0 UV-I 0 W/m 0,0 km/h (0 Bft)
15.08.2014 03:38 13,0 C 11,7 C 93 % 1010,2 hPa 0,0 l/m 0 min 0 min 0,0 UV-I 0 W/m 0,0 km/h (0 Bft)
15.08.2014 03:40 13,0 C 11,7 C 93 % 1010,2 hPa 0,0 l/m 0 min 0 min 0,0 UV-I 0 W/m 3,5 km/h (1 Bft)
15.08.2014 03:42 13,0 C 11,7 C 93 % 1010,3 hPa 0,0 l/m 0 min 0 min 0,0 UV-I 0 W/m 0,0 km/h (0 Bft)
15.08.2014 03:44 12,9 C 11,7 C 93 % 1010,3 hPa 0,0 l/m 0 min 0 min 0,0 UV-I 0 W/m 0,0 km/h (0 Bft)
15.08.2014 03:46 12,9 C 11,7 C 93 % 1010,2 hPa 0,0 l/m 0 min 0 min 0,0 UV-I 0 W/m 0,0 km/h (0 Bft)
15.08.2014 03:48 12,9 C 11,7 C 94 % 1010,3 hPa 0,0 l/m 0 min 0 min 0,0 UV-I 0 W/m 3,5 km/h (1 Bft)
15.08.2014 03:50 12,9 C 11,7 C 94 % 1010,3 hPa 0,0 l/m 0 min 0 min 0,0 UV-I 0 W/m 0,0 km/h (0 Bft)
15.08.2014 03:52 12,9 C 11,7 C 94 % 1010,2 hPa 0,0 l/m 0 min 0 min 0,0 UV-I 0 W/m 3,5 km/h (1 Bft)
15.08.2014 03:54 12,9 C 11,7 C 94 % 1010,2 hPa 0,0 l/m 0 min 0 min 0,0 UV-I 0 W/m 0,0 km/h (0 Bft)
15.08.2014 03:56 12,8 C 11,7 C 94 % 1010,2 hPa 0,0 l/m 0 min 0 min 0,0 UV-I 0 W/m 0,0 km/h (0 Bft)
15.08.2014 03:58 12,8 C 11,7 C 94 % 1010,2 hPa 0,0 l/m 0 min 0 min 0,0 UV-I 0 W/m 3,5 km/h (1 Bft)
15.08.2014 04:00 12,8 C 11,1 C 94 % 1010,2 hPa 0,0 l/m 0 min 0 min 0,0 UV-I 0 W/m 0,0 km/h (0 Bft)
15.08.2014 04:02 12,8 C 11,1 C 94 % 1010,3 hPa 0,0 l/m 0 min 0 min 0,0 UV-I 0 W/m 14,2 km/h (3 Bft)
15.08.2014 04:04 12,8 C 11,7 C 94 % 1010,3 hPa 0,0 l/m 0 min 0 min 0,0 UV-I 0 W/m 10,7 km/h (2 Bft)
15.08.2014 04:06 12,8 C 11,7 C 94 % 1010,3 hPa 0,0 l/m 0 min 0 min 0,0 UV-I 0 W/m 10,7 km/h (2 Bft)
15.08.2014 04:08 12,7 C 11,1 C 94 % 1010,3 hPa 0,0 l/m 0 min 0 min 0,0 UV-I 0 W/m 0,0 km/h (0 Bft)
15.08.2014 04:10 12,7 C 11,1 C 94 % 1010,3 hPa 0,0 l/m 0 min 0 min 0,0 UV-I 0 W/m 0,0 km/h (0 Bft)
15.08.2014 04:12 12,7 C 11,1 C 94 % 1010,4 hPa 0,0 l/m 0 min 0 min 0,0 UV-I 0 W/m 0,0 km/h (0 Bft)
15.08.2014 04:14 12,7 C 11,1 C 94 % 1010,3 hPa 0,0 l/m 0 min 0 min 0,0 UV-I 0 W/m 14,2 km/h (3 Bft)
15.08.2014 04:16 12,7 C 11,1 C 94 % 1010,3 hPa 0,0 l/m 0 min 0 min 0,0 UV-I 0 W/m 3,5 km/h (1 Bft)
15.08.2014 04:18 12,6 C 11,1 C 94 % 1010,3 hPa 0,0 l/m 0 min 0 min 0,0 UV-I 0 W/m 7,1 km/h (2 Bft)
15.08.2014 04:20 12,6 C 11,1 C 94 % 1010,3 hPa 0,0 l/m 0 min 0 min 0,0 UV-I 0 W/m 0,0 km/h (0 Bft)
15.08.2014 04:22 12,6 C 11,1 C 94 % 1010,3 hPa 0,0 l/m 0 min 0 min 0,0 UV-I 0 W/m 0,0 km/h (0 Bft)
15.08.2014 04:24 12,6 C 11,1 C 94 % 1010,2 hPa 0,0 l/m 0 min 0 min 0,0 UV-I 0 W/m 0,0 km/h (0 Bft)
15.08.2014 04:26 12,6 C 11,1 C 94 % 1010,2 hPa 0,0 l/m 0 min 0 min 0,0 UV-I 0 W/m 21,3 km/h (4 Bft)
15.08.2014 04:28 12,6 C 11,7 C 94 % 1010,3 hPa 0,0 l/m 0 min 0 min 0,0 UV-I 0 W/m 7,1 km/h (2 Bft)
15.08.2014 04:30 12,6 C 11,7 C 94 % 1010,3 hPa 0,0 l/m 0 min 0 min 0,0 UV-I 0 W/m 17,7 km/h (3 Bft)
15.08.2014 04:32 12,6 C 11,7 C 94 % 1010,3 hPa 0,0 l/m 0 min 0 min 0,0 UV-I 0 W/m 14,2 km/h (3 Bft)
15.08.2014 04:34 12,6 C 11,7 C 94 % 1010,3 hPa 0,0 l/m 0 min 0 min 0,0 UV-I 0 W/m 7,1 km/h (2 Bft)
15.08.2014 04:36 12,6 C 11,7 C 94 % 1010,2 hPa 0,0 l/m 0 min 0 min 0,0 UV-I 0 W/m 10,7 km/h (2 Bft)
15.08.2014 04:38 12,7 C 11,7 C 94 % 1010,2 hPa 0,0 l/m 0 min 0 min 0,0 UV-I 0 W/m 14,2 km/h (3 Bft)
15.08.2014 04:40 12,7 C 11,7 C 94 % 1010,2 hPa 0,0 l/m 0 min 0 min 0,0 UV-I 0 W/m 14,2 km/h (3 Bft)
15.08.2014 04:42 12,7 C 11,7 C 94 % 1010,2 hPa 0,0 l/m 0 min 0 min 0,0 UV-I 0 W/m 14,2 km/h (3 Bft)
15.08.2014 04:44 12,7 C 11,7 C 94 % 1010,2 hPa 0,0 l/m 0 min 0 min 0,0 UV-I 0 W/m 10,7 km/h (2 Bft)
15.08.2014 04:46 12,7 C 11,7 C 94 % 1010,2 hPa 0,0 l/m 0 min 0 min 0,0 UV-I 0 W/m 10,7 km/h (2 Bft)
15.08.2014 04:48 12,7 C 11,7 C 94 % 1010,2 hPa 0,0 l/m 0 min 0 min 0,0 UV-I 0 W/m 14,2 km/h (3 Bft)
15.08.2014 04:50 12,7 C 11,7 C 93 % 1010,2 hPa 0,0 l/m 0 min 0 min 0,0 UV-I 0 W/m 10,7 km/h (2 Bft)
15.08.2014 04:52 12,8 C 11,7 C 94 % 1010,1 hPa 0,0 l/m 0 min 0 min 0,0 UV-I 0 W/m 10,7 km/h (2 Bft)
15.08.2014 04:54 12,8 C 11,7 C 93 % 1010,2 hPa 0,0 l/m 0 min 0 min 0,0 UV-I 0 W/m 3,5 km/h (1 Bft)
15.08.2014 04:56 12,8 C 11,7 C 93 % 1010,1 hPa 0,0 l/m 0 min 0 min 0,0 UV-I 0 W/m 14,2 km/h (3 Bft)
15.08.2014 04:58 12,8 C 11,7 C 93 % 1010,1 hPa 0,0 l/m 0 min 0 min 0,0 UV-I 0 W/m 10,7 km/h (2 Bft)
15.08.2014 05:00 12,8 C 11,7 C 93 % 1010,1 hPa 0,0 l/m 0 min 0 min 0,0 UV-I 0 W/m 10,7 km/h (2 Bft)
15.08.2014 05:02 12,8 C 11,7 C 93 % 1010,1 hPa 0,0 l/m 0 min 0 min 0,0 UV-I 0 W/m 10,7 km/h (2 Bft)
15.08.2014 05:04 12,8 C 11,7 C 93 % 1010,1 hPa 0,0 l/m 0 min 0 min 0,0 UV-I 0 W/m 10,7 km/h (2 Bft)
15.08.2014 05:06 12,8 C 11,7 C 93 % 1010,1 hPa 0,0 l/m 0 min 0 min 0,0 UV-I 0 W/m 10,7 km/h (2 Bft)
15.08.2014 05:08 12,7 C 11,7 C 93 % 1010,1 hPa 0,0 l/m 0 min 0 min 0,0 UV-I 0 W/m 0,0 km/h (0 Bft)
15.08.2014 05:10 12,7 C 11,7 C 93 % 1010,1 hPa 0,0 l/m 0 min 0 min 0,0 UV-I 0 W/m 7,1 km/h (2 Bft)
15.08.2014 05:12 12,7 C 11,7 C 93 % 1010,1 hPa 0,0 l/m 0 min 0 min 0,0 UV-I 0 W/m 14,2 km/h (3 Bft)
15.08.2014 05:14 12,7 C 11,7 C 93 % 1010,1 hPa 0,0 l/m 0 min 0 min 0,0 UV-I 0 W/m 7,1 km/h (2 Bft)
15.08.2014 05:16 12,7 C 11,7 C 93 % 1010,1 hPa 0,0 l/m 0 min 0 min 0,0 UV-I 0 W/m 0,0 km/h (0 Bft)
15.08.2014 05:18 12,7 C 11,7 C 93 % 1010,1 hPa 0,0 l/m 0 min 0 min 0,0 UV-I 0 W/m 14,2 km/h (3 Bft)
15.08.2014 05:20 12,7 C 11,7 C 93 % 1010,2 hPa 0,0 l/m 0 min 0 min 0,0 UV-I 0 W/m 14,2 km/h (3 Bft)
15.08.2014 05:22 12,7 C 11,7 C 93 % 1010,1 hPa 0,0 l/m 0 min 0 min 0,0 UV-I 0 W/m 14,2 km/h (3 Bft)
15.08.2014 05:24 12,7 C 11,7 C 93 % 1010,1 hPa 0,0 l/m 0 min 0 min 0,0 UV-I 0 W/m 10,7 km/h (2 Bft)
15.08.2014 05:26 12,7 C 11,7 C 93 % 1010,1 hPa 0,0 l/m 0 min 0 min 0,0 UV-I 0 W/m 14,2 km/h (3 Bft)
15.08.2014 05:28 12,8 C 11,7 C 93 % 1010,1 hPa 0,0 l/m 0 min 0 min 0,0 UV-I 0 W/m 14,2 km/h (3 Bft)
15.08.2014 05:30 12,8 C 11,7 C 93 % 1010,1 hPa 0,0 l/m 0 min 0 min 0,0 UV-I 0 W/m 10,7 km/h (2 Bft)
15.08.2014 05:32 12,8 C 11,7 C 93 % 1010,1 hPa 0,0 l/m 0 min 0 min 0,0 UV-I 0 W/m 14,2 km/h (3 Bft)
15.08.2014 05:34 12,8 C 12,2 C 93 % 1010,1 hPa 0,0 l/m 0 min 0 min 0,0 UV-I 0 W/m 10,7 km/h (2 Bft)
15.08.2014 05:36 12,8 C 12,2 C 93 % 1010,1 hPa 0,0 l/m 0 min 0 min 0,0 UV-I 0 W/m 10,7 km/h (2 Bft)
15.08.2014 05:38 12,9 C 12,2 C 93 % 1010,1 hPa 0,0 l/m 0 min 0 min 0,0 UV-I 0 W/m 3,5 km/h (1 Bft)
15.08.2014 05:40 12,9 C 12,2 C 93 % 1010,1 hPa 0,0 l/m 0 min 0 min 0,0 UV-I 0 W/m 14,2 km/h (3 Bft)
15.08.2014 05:42 12,9 C 12,2 C 93 % 1010,1 hPa 0,0 l/m 0 min 0 min 0,0 UV-I 0 W/m 10,7 km/h (2 Bft)
15.08.2014 05:44 12,9 C 12,2 C 93 % 1010,1 hPa 0,0 l/m 0 min 0 min 0,0 UV-I 0 W/m 14,2 km/h (3 Bft)
15.08.2014 05:46 12,9 C 12,2 C 93 % 1010,1 hPa 0,0 l/m 0 min 0 min 0,0 UV-I 0 W/m 10,7 km/h (2 Bft)
15.08.2014 05:48 12,9 C 12,2 C 93 % 1010,1 hPa 0,0 l/m 0 min 0 min 0,0 UV-I 0 W/m 14,2 km/h (3 Bft)
15.08.2014 05:50 12,9 C 12,2 C 93 % 1010,1 hPa 0,0 l/m 0 min 0 min 0,0 UV-I 0 W/m 7,1 km/h (2 Bft)
15.08.2014 05:52 12,9 C 12,2 C 93 % 1010,1 hPa 0,0 l/m 0 min 0 min 0,0 UV-I 0 W/m 10,7 km/h (2 Bft)
15.08.2014 05:54 13,0 C 12,2 C 93 % 1010,2 hPa 0,0 l/m 0 min 0 min 0,0 UV-I 0 W/m 14,2 km/h (3 Bft)
15.08.2014 05:56 12,9 C 12,2 C 93 % 1010,1 hPa 0,0 l/m 0 min 0 min 0,0 UV-I 0 W/m 14,2 km/h (3 Bft)
15.08.2014 05:58 12,9 C 12,2 C 93 % 1010,1 hPa 0,0 l/m 0 min 0 min 0,0 UV-I 0 W/m 10,7 km/h (2 Bft)
15.08.2014 06:00 12,9 C 12,2 C 93 % 1010,2 hPa 0,0 l/m 0 min 0 min 0,0 UV-I 0 W/m 10,7 km/h (2 Bft)
15.08.2014 06:02 12,9 C 12,2 C 93 % 1010,1 hPa 0,0 l/m 0 min 0 min 0,0 UV-I 0 W/m 14,2 km/h (3 Bft)
15.08.2014 06:06 13,0 C 12,2 C 93 % 1010,1 hPa 0,0 l/m 0 min 0 min 0,0 UV-I 0 W/m 10,7 km/h (2 Bft)
15.08.2014 06:08 13,0 C 12,2 C 93 % 1010,2 hPa 0,0 l/m 0 min 0 min 0,0 UV-I 0 W/m 3,5 km/h (1 Bft)
15.08.2014 06:10 12,9 C 12,2 C 93 % 1010,2 hPa 0,0 l/m 0 min 0 min 0,0 UV-I 0 W/m 0,0 km/h (0 Bft)
15.08.2014 06:12 13,0 C 12,2 C 93 % 1010,2 hPa 0,0 l/m 0 min 0 min 0,0 UV-I 0 W/m 0,0 km/h (0 Bft)
15.08.2014 06:14 13,0 C 12,2 C 93 % 1010,3 hPa 0,0 l/m 0 min 0 min 0,0 UV-I 0 W/m 7,1 km/h (2 Bft)
15.08.2014 06:16 13,0 C 12,2 C 93 % 1010,2 hPa 0,0 l/m 0 min 0 min 0,0 UV-I 0 W/m 0,0 km/h (0 Bft)
15.08.2014 06:18 13,0 C 12,2 C 93 % 1010,2 hPa 0,0 l/m 0 min 0 min 0,0 UV-I 0 W/m 0,0 km/h (0 Bft)
15.08.2014 06:20 12,9 C 12,2 C 93 % 1010,2 hPa 0,0 l/m 0 min 0 min 0,0 UV-I 0 W/m 0,0 km/h (0 Bft)
15.08.2014 06:22 13,0 C 12,2 C 93 % 1010,2 hPa 0,0 l/m 0 min 0 min 0,0 UV-I 0 W/m 0,0 km/h (0 Bft)
15.08.2014 06:24 12,9 C 12,2 C 93 % 1010,2 hPa 0,0 l/m 0 min 0 min 0,0 UV-I 0 W/m 3,5 km/h (1 Bft)
15.08.2014 06:26 13,0 C 12,2 C 93 % 1010,2 hPa 0,0 l/m 0 min 0 min 0,0 UV-I 0 W/m 0,0 km/h (0 Bft)
15.08.2014 06:28 13,0 C 12,2 C 94 % 1010,2 hPa 0,0 l/m 0 min 0 min 0,0 UV-I 0 W/m 0,0 km/h (0 Bft)
15.08.2014 06:30 13,0 C 12,2 C 94 % 1010,2 hPa 0,0 l/m 0 min 0 min 0,0 UV-I 0 W/m 0,0 km/h (0 Bft)
15.08.2014 06:32 13,0 C 12,2 C 94 % 1010,2 hPa 0,0 l/m 0 min 0 min 0,0 UV-I 1 W/m 0,0 km/h (0 Bft)
15.08.2014 06:34 13,0 C 12,2 C 94 % 1010,2 hPa 0,0 l/m 0 min 0 min 0,0 UV-I 5 W/m 0,0 km/h (0 Bft)
15.08.2014 06:36 13,0 C 12,2 C 94 % 1010,2 hPa 0,0 l/m 0 min 0 min 0,0 UV-I 5 W/m 0,0 km/h (0 Bft)
15.08.2014 06:38 13,0 C 12,2 C 94 % 1010,1 hPa 0,0 l/m 0 min 0 min 0,0 UV-I 5 W/m 0,0 km/h (0 Bft)
15.08.2014 06:40 13,0 C 12,2 C 94 % 1010,1 hPa 0,0 l/m 0 min 0 min 0,0 UV-I 6 W/m 0,0 km/h (0 Bft)
15.08.2014 06:42 13,0 C 12,2 C 94 % 1010,1 hPa 0,0 l/m 0 min 0 min 0,0 UV-I 7 W/m 0,0 km/h (0 Bft)
15.08.2014 06:44 13,0 C 12,2 C 94 % 1010,2 hPa 0,0 l/m 0 min 0 min 0,0 UV-I 7 W/m 3,5 km/h (1 Bft)
15.08.2014 06:46 13,0 C 12,2 C 94 % 1010,2 hPa 0,0 l/m 0 min 0 min 0,0 UV-I 7 W/m 0,0 km/h (0 Bft)
15.08.2014 06:48 13,1 C 12,2 C 94 % 1010,1 hPa 0,0 l/m 0 min 0 min 0,0 UV-I 7 W/m 0,0 km/h (0 Bft)
15.08.2014 06:50 13,0 C 12,2 C 94 % 1010,2 hPa 0,0 l/m 0 min 0 min 0,0 UV-I 7 W/m 0,0 km/h (0 Bft)
15.08.2014 06:52 13,1 C 12,2 C 94 % 1010,2 hPa 0,0 l/m 0 min 0 min 0,0 UV-I 7 W/m 0,0 km/h (0 Bft)
15.08.2014 06:54 13,1 C 12,2 C 94 % 1010,2 hPa 0,0 l/m 0 min 0 min 0,0 UV-I 9 W/m 0,0 km/h (0 Bft)
15.08.2014 06:56 13,0 C 12,2 C 94 % 1010,1 hPa 0,0 l/m 0 min 0 min 0,0 UV-I 9 W/m 0,0 km/h (0 Bft)
15.08.2014 06:58 13,1 C 12,2 C 94 % 1010,2 hPa 0,0 l/m 0 min 0 min 0,0 UV-I 9 W/m 0,0 km/h (0 Bft)
15.08.2014 07:00 13,1 C 12,2 C 94 % 1010,2 hPa 0,0 l/m 0 min 0 min 0,0 UV-I 11 W/m 0,0 km/h (0 Bft)
15.08.2014 07:02 13,1 C 12,2 C 94 % 1010,2 hPa 0,0 l/m 0 min 0 min 0,0 UV-I 11 W/m 0,0 km/h (0 Bft)
15.08.2014 07:04 13,1 C 12,2 C 94 % 1010,3 hPa 0,0 l/m 0 min 0 min 0,0 UV-I 12 W/m 0,0 km/h (0 Bft)
15.08.2014 07:06 13,1 C 12,2 C 95 % 1010,3 hPa 0,0 l/m 0 min 0 min 0,0 UV-I 13 W/m 0,0 km/h (0 Bft)
15.08.2014 07:08 13,1 C 12,2 C 95 % 1010,3 hPa 0,0 l/m 0 min 0 min 0,0 UV-I 14 W/m 0,0 km/h (0 Bft)
15.08.2014 07:10 13,1 C 12,2 C 95 % 1010,4 hPa 0,0 l/m 0 min 0 min 0,0 UV-I 16 W/m 0,0 km/h (0 Bft)
15.08.2014 07:12 13,2 C 12,2 C 95 % 1010,4 hPa 0,0 l/m 0 min 0 min 0,0 UV-I 16 W/m 0,0 km/h (0 Bft)
15.08.2014 07:14 13,2 C 12,2 C 95 % 1010,5 hPa 0,0 l/m 0 min 0 min 0,0 UV-I 18 W/m 0,0 km/h (0 Bft)
15.08.2014 07:16 13,2 C 12,2 C 95 % 1010,4 hPa 0,0 l/m 0 min 0 min 0,0 UV-I 19 W/m 0,0 km/h (0 Bft)
15.08.2014 07:18 13,3 C 12,2 C 95 % 1010,4 hPa 0,0 l/m 0 min 0 min 0,0 UV-I 19 W/m 0,0 km/h (0 Bft)
15.08.2014 07:20 13,3 C 12,2 C 95 % 1010,5 hPa 0,0 l/m 0 min 0 min 0,0 UV-I 19 W/m 0,0 km/h (0 Bft)
15.08.2014 07:22 13,3 C 12,2 C 95 % 1010,5 hPa 0,0 l/m 0 min 2 min 0,0 UV-I 19 W/m 0,0 km/h (0 Bft)
15.08.2014 07:24 13,3 C 12,8 C 95 % 1010,5 hPa 0,0 l/m 0 min 0 min 0,0 UV-I 19 W/m 10,7 km/h (2 Bft)
15.08.2014 07:26 13,3 C 12,8 C 95 % 1010,5 hPa 0,0 l/m 0 min 0 min 0,0 UV-I 20 W/m 14,2 km/h (3 Bft)
15.08.2014 07:28 13,3 C 12,8 C 95 % 1010,5 hPa 0,0 l/m 0 min 0 min 0,0 UV-I 21 W/m 10,7 km/h (2 Bft)
15.08.2014 07:30 13,4 C 12,8 C 95 % 1010,4 hPa 0,0 l/m 0 min 0 min 0,0 UV-I 23 W/m 0,0 km/h (0 Bft)
15.08.2014 07:32 13,4 C 12,8 C 95 % 1010,5 hPa 0,0 l/m 0 min 0 min 0,0 UV-I 23 W/m 0,0 km/h (0 Bft)
15.08.2014 07:34 13,4 C 12,8 C 95 % 1010,5 hPa 0,0 l/m 0 min 0 min 0,0 UV-I 23 W/m 0,0 km/h (0 Bft)
15.08.2014 07:36 13,4 C 12,8 C 95 % 1010,4 hPa 0,0 l/m 0 min 0 min 0,0 UV-I 25 W/m 3,5 km/h (1 Bft)
15.08.2014 07:38 13,4 C 12,8 C 95 % 1010,4 hPa 0,0 l/m 0 min 0 min 0,0 UV-I 26 W/m 0,0 km/h (0 Bft)
15.08.2014 07:40 13,4 C 12,8 C 95 % 1010,4 hPa 0,0 l/m 0 min 0 min 0,0 UV-I 27 W/m 0,0 km/h (0 Bft)
15.08.2014 07:42 13,5 C 12,8 C 95 % 1010,4 hPa 0,0 l/m 0 min 0 min 0,0 UV-I 28 W/m 14,2 km/h (3 Bft)
15.08.2014 07:44 13,5 C 12,8 C 95 % 1010,5 hPa 0,0 l/m 0 min 0 min 0,0 UV-I 28 W/m 7,1 km/h (2 Bft)
15.08.2014 07:46 13,5 C 12,8 C 95 % 1010,5 hPa 0,0 l/m 0 min 0 min 0,0 UV-I 29 W/m 7,1 km/h (2 Bft)
15.08.2014 07:48 13,5 C 12,8 C 95 % 1010,5 hPa 0,0 l/m 0 min 0 min 0,0 UV-I 31 W/m 3,5 km/h (1 Bft)
15.08.2014 07:50 13,5 C 12,8 C 95 % 1010,5 hPa 0,0 l/m 0 min 0 min 0,0 UV-I 34 W/m 0,0 km/h (0 Bft)
15.08.2014 07:52 13,5 C 12,8 C 95 % 1010,6 hPa 0,0 l/m 0 min 0 min 0,0 UV-I 36 W/m 7,1 km/h (2 Bft)
15.08.2014 07:54 13,6 C 12,8 C 95 % 1010,6 hPa 0,0 l/m 0 min 0 min 0,0 UV-I 39 W/m 0,0 km/h (0 Bft)
15.08.2014 07:56 13,6 C 12,8 C 95 % 1010,6 hPa 0,0 l/m 0 min 0 min 0,0 UV-I 42 W/m 0,0 km/h (0 Bft)
15.08.2014 07:58 13,6 C 12,8 C 95 % 1010,6 hPa 0,0 l/m 0 min 0 min 0,0 UV-I 46 W/m 0,0 km/h (0 Bft)
15.08.2014 08:00 13,7 C 12,8 C 95 % 1010,7 hPa 0,0 l/m 0 min 0 min 0,0 UV-I 49 W/m 0,0 km/h (0 Bft)
15.08.2014 08:02 13,7 C 13,3 C 95 % 1010,7 hPa 0,0 l/m 0 min 0 min 0,0 UV-I 53 W/m 0,0 km/h (0 Bft)
15.08.2014 08:04 13,7 C 13,3 C 95 % 1010,6 hPa 0,0 l/m 0 min 0 min 0,0 UV-I 55 W/m 0,0 km/h (0 Bft)
15.08.2014 08:06 13,7 C 13,3 C 95 % 1010,7 hPa 0,0 l/m 0 min 0 min 0,0 UV-I 61 W/m 0,0 km/h (0 Bft)
15.08.2014 08:08 13,7 C 13,3 C 95 % 1010,7 hPa 0,0 l/m 0 min 0 min 0,0 UV-I 67 W/m 0,0 km/h (0 Bft)
15.08.2014 08:10 13,8 C 13,3 C 95 % 1010,7 hPa 0,0 l/m 0 min 0 min 0,0 UV-I 73 W/m 17,7 km/h (3 Bft)
15.08.2014 08:12 13,8 C 13,3 C 95 % 1010,7 hPa 0,0 l/m 0 min 0 min 0,0 UV-I 79 W/m 17,7 km/h (3 Bft)
15.08.2014 08:14 13,8 C 13,3 C 95 % 1010,7 hPa 0,0 l/m 0 min 2 min 0,0 UV-I 86 W/m 14,2 km/h (3 Bft)
15.08.2014 08:16 13,9 C 13,3 C 95 % 1010,7 hPa 0,0 l/m 0 min 0 min 0,0 UV-I 90 W/m 10,7 km/h (2 Bft)
15.08.2014 08:18 13,9 C 13,3 C 95 % 1010,7 hPa 0,0 l/m 0 min 0 min 0,0 UV-I 92 W/m 31,7 km/h (5 Bft)
15.08.2014 08:20 13,9 C 13,3 C 95 % 1010,7 hPa 0,0 l/m 0 min 0 min 0,0 UV-I 93 W/m 31,7 km/h (5 Bft)
15.08.2014 08:22 13,9 C 13,3 C 95 % 1010,7 hPa 0,0 l/m 0 min 0 min 0,0 UV-I 93 W/m 21,3 km/h (4 Bft)
15.08.2014 08:24 14,0 C 13,3 C 95 % 1010,7 hPa 0,0 l/m 0 min 0 min 0,0 UV-I 93 W/m 17,7 km/h (3 Bft)
15.08.2014 08:26 14,1 C 13,9 C 95 % 1010,8 hPa 0,0 l/m 0 min 0 min 0,0 UV-I 93 W/m 17,7 km/h (3 Bft)
15.08.2014 08:28 14,1 C 13,9 C 95 % 1010,7 hPa 0,0 l/m 0 min 0 min 0,0 UV-I 94 W/m 24,7 km/h (4 Bft)
15.08.2014 08:30 14,2 C 13,9 C 95 % 1010,7 hPa 0,0 l/m 0 min 0 min 0,0 UV-I 97 W/m 21,3 km/h (4 Bft)
15.08.2014 08:32 14,2 C 13,9 C 95 % 1010,7 hPa 0,0 l/m 0 min 0 min 0,0 UV-I 98 W/m 24,7 km/h (4 Bft)
15.08.2014 08:34 14,2 C 13,9 C 95 % 1010,7 hPa 0,0 l/m 0 min 0 min 0,0 UV-I 93 W/m 17,7 km/h (3 Bft)
15.08.2014 08:36 14,2 C 13,9 C 95 % 1010,7 hPa 0,0 l/m 0 min 0 min 0,0 UV-I 90 W/m 21,3 km/h (4 Bft)
15.08.2014 08:38 14,2 C 13,9 C 94 % 1010,8 hPa 0,0 l/m 0 min 0 min 0,0 UV-I 86 W/m 17,7 km/h (3 Bft)
15.08.2014 08:40 14,2 C 13,9 C 94 % 1010,7 hPa 0,0 l/m 0 min 0 min 0,0 UV-I 84 W/m 17,7 km/h (3 Bft)
15.08.2014 08:42 14,2 C 13,9 C 94 % 1010,8 hPa 0,0 l/m 0 min 0 min 0,0 UV-I 87 W/m 24,7 km/h (4 Bft)
15.08.2014 08:44 14,2 C 13,9 C 94 % 1010,8 hPa 0,0 l/m 0 min 0 min 0,0 UV-I 93 W/m 17,7 km/h (3 Bft)
15.08.2014 08:46 14,2 C 13,9 C 94 % 1010,8 hPa 0,0 l/m 0 min 0 min 0,0 UV-I 98 W/m 24,7 km/h (4 Bft)
15.08.2014 08:48 14,2 C 13,9 C 94 % 1010,8 hPa 0,0 l/m 0 min 0 min 0,0 UV-I 105 W/m 24,7 km/h (4 Bft)
15.08.2014 08:50 14,2 C 13,9 C 94 % 1010,7 hPa 0,0 l/m 0 min 0 min 0,0 UV-I 113 W/m 14,2 km/h (3 Bft)
15.08.2014 08:52 14,2 C 13,9 C 94 % 1010,8 hPa 0,0 l/m 0 min 0 min 0,0 UV-I 119 W/m 21,3 km/h (4 Bft)
15.08.2014 08:54 14,2 C 13,9 C 94 % 1010,8 hPa 0,0 l/m 0 min 0 min 0,0 UV-I 127 W/m 38,9 km/h (6 Bft)
15.08.2014 08:56 14,2 C 13,9 C 94 % 1010,8 hPa 0,0 l/m 0 min 0 min 0,0 UV-I 132 W/m 14,2 km/h (3 Bft)
15.08.2014 08:58 14,3 C 13,9 C 94 % 1010,7 hPa 0,0 l/m 0 min 0 min 0,0 UV-I 139 W/m 17,7 km/h (3 Bft)
15.08.2014 09:00 14,3 C 13,9 C 94 % 1010,8 hPa 0,0 l/m 0 min 0 min 0,0 UV-I 142 W/m 21,3 km/h (4 Bft)
15.08.2014 09:02 14,3 C 14,4 C 94 % 1010,8 hPa 0,0 l/m 0 min 0 min 0,0 UV-I 147 W/m 17,7 km/h (3 Bft)
15.08.2014 09:04 14,4 C 14,4 C 94 % 1010,8 hPa 0,0 l/m 0 min 0 min 0,0 UV-I 154 W/m 21,3 km/h (4 Bft)
15.08.2014 09:06 14,4 C 14,4 C 94 % 1010,8 hPa 0,0 l/m 0 min 0 min 0,0 UV-I 159 W/m 14,2 km/h (3 Bft)
15.08.2014 09:08 14,4 C 14,4 C 94 % 1010,7 hPa 0,0 l/m 0 min 0 min 0,0 UV-I 164 W/m 14,2 km/h (3 Bft)
15.08.2014 09:10 14,5 C 14,4 C 93 % 1010,8 hPa 0,0 l/m 0 min 0 min 0,0 UV-I 168 W/m 35,4 km/h (5 Bft)
15.08.2014 09:12 14,5 C 14,4 C 93 % 1010,8 hPa 0,0 l/m 0 min 0 min 0,0 UV-I 171 W/m 24,7 km/h (4 Bft)
15.08.2014 09:14 14,6 C 14,4 C 93 % 1010,8 hPa 0,0 l/m 0 min 0 min 0,0 UV-I 172 W/m 28,2 km/h (4 Bft)
15.08.2014 09:16 14,7 C 14,4 C 93 % 1010,8 hPa 0,0 l/m 0 min 0 min 0,0 UV-I 164 W/m 28,2 km/h (4 Bft)
15.08.2014 09:18 14,6 C 14,4 C 93 % 1010,9 hPa 0,0 l/m 0 min 0 min 0,0 UV-I 155 W/m 31,7 km/h (5 Bft)
15.08.2014 09:20 14,6 C 14,4 C 92 % 1010,8 hPa 0,0 l/m 0 min 0 min 0,0 UV-I 145 W/m 31,7 km/h (5 Bft)
15.08.2014 09:22 14,6 C 14,4 C 92 % 1010,9 hPa 0,0 l/m 0 min 0 min 0,0 UV-I 141 W/m 24,7 km/h (4 Bft)
15.08.2014 09:24 14,6 C 14,4 C 92 % 1010,9 hPa 0,0 l/m 0 min 0 min 0,0 UV-I 140 W/m 21,3 km/h (4 Bft)
15.08.2014 09:26 14,6 C 14,4 C 92 % 1011,0 hPa 0,0 l/m 0 min 0 min 0,0 UV-I 140 W/m 24,7 km/h (4 Bft)
15.08.2014 09:28 14,7 C 14,4 C 92 % 1011,0 hPa 0,0 l/m 0 min 0 min 0,0 UV-I 145 W/m 24,7 km/h (4 Bft)
15.08.2014 09:30 14,7 C 14,4 C 92 % 1011,1 hPa 0,0 l/m 0 min 0 min 0,0 UV-I 148 W/m 24,7 km/h (4 Bft)
15.08.2014 09:32 14,7 C 14,4 C 92 % 1011,0 hPa 0,0 l/m 0 min 0 min 0,0 UV-I 151 W/m 17,7 km/h (3 Bft)
15.08.2014 09:34 14,8 C 15,0 C 92 % 1011,0 hPa 0,0 l/m 0 min 0 min 0,0 UV-I 156 W/m 24,7 km/h (4 Bft)
15.08.2014 09:36 14,8 C 15,0 C 92 % 1011,1 hPa 0,0 l/m 0 min 0 min 0,0 UV-I 165 W/m 21,3 km/h (4 Bft)
15.08.2014 09:38 14,9 C 15,0 C 92 % 1011,1 hPa 0,0 l/m 0 min 0 min 0,0 UV-I 166 W/m 28,2 km/h (4 Bft)
15.08.2014 09:40 14,9 C 15,0 C 92 % 1011,1 hPa 0,0 l/m 0 min 0 min 0,0 UV-I 156 W/m 24,7 km/h (4 Bft)
15.08.2014 09:42 14,8 C 15,0 C 92 % 1011,1 hPa 0,0 l/m 0 min 0 min 0,0 UV-I 146 W/m 21,3 km/h (4 Bft)
15.08.2014 09:44 14,8 C 14,4 C 92 % 1011,1 hPa 0,0 l/m 0 min 0 min 0,0 UV-I 156 W/m 28,2 km/h (4 Bft)
15.08.2014 09:46 14,8 C 14,4 C 91 % 1011,1 hPa 0,0 l/m 0 min 0 min 0,0 UV-I 167 W/m 28,2 km/h (4 Bft)
15.08.2014 09:48 14,8 C 14,4 C 91 % 1011,2 hPa 0,0 l/m 0 min 0 min 0,0 UV-I 177 W/m 28,2 km/h (4 Bft)
15.08.2014 09:50 14,7 C 15,0 C 91 % 1011,1 hPa 0,0 l/m 0 min 0 min 0,0 UV-I 173 W/m 24,7 km/h (4 Bft)
15.08.2014 09:52 14,8 C 15,0 C 91 % 1011,2 hPa 0,0 l/m 0 min 0 min 0,0 UV-I 181 W/m 31,7 km/h (5 Bft)
15.08.2014 09:54 14,8 C 15,0 C 91 % 1011,2 hPa 0,0 l/m 0 min 0 min 0,0 UV-I 178 W/m 21,3 km/h (4 Bft)
15.08.2014 09:56 14,9 C 15,0 C 92 % 1011,2 hPa 0,0 l/m 0 min 0 min 0,0 UV-I 169 W/m 21,3 km/h (4 Bft)
15.08.2014 09:58 15,0 C 15,0 C 91 % 1011,2 hPa 0,0 l/m 0 min 0 min 0,0 UV-I 151 W/m 21,3 km/h (4 Bft)
15.08.2014 10:00 15,0 C 15,0 C 91 % 1011,2 hPa 0,0 l/m 0 min 0 min 0,0 UV-I 130 W/m 31,7 km/h (5 Bft)
15.08.2014 10:02 14,9 C 14,4 C 91 % 1011,2 hPa 0,0 l/m 0 min 2 min 0,0 UV-I 105 W/m 31,7 km/h (5 Bft)
15.08.2014 10:04 14,9 C 14,4 C 91 % 1011,3 hPa 0,0 l/m 0 min 0 min 0,0 UV-I 98 W/m 24,7 km/h (4 Bft)
15.08.2014 10:06 14,9 C 14,4 C 91 % 1011,3 hPa 0,0 l/m 0 min 2 min 0,0 UV-I 99 W/m 24,7 km/h (4 Bft)
15.08.2014 10:08 14,9 C 14,4 C 91 % 1011,3 hPa 0,0 l/m 0 min 0 min 0,0 UV-I 99 W/m 14,2 km/h (3 Bft)
15.08.2014 10:10 14,9 C 14,4 C 92 % 1011,3 hPa 0,0 l/m 0 min 2 min 0,0 UV-I 102 W/m 14,2 km/h (3 Bft)
15.08.2014 10:12 14,9 C 14,4 C 92 % 1011,3 hPa 0,0 l/m 0 min 0 min 0,0 UV-I 98 W/m 14,2 km/h (3 Bft)
15.08.2014 10:14 14,9 C 14,4 C 92 % 1011,3 hPa 0,0 l/m 0 min 2 min 0,0 UV-I 92 W/m 21,3 km/h (4 Bft)
15.08.2014 10:16 14,9 C 14,4 C 92 % 1011,3 hPa 0,0 l/m 0 min 2 min 0,0 UV-I 85 W/m 21,3 km/h (4 Bft)
15.08.2014 10:18 14,9 C 14,4 C 92 % 1011,3 hPa 0,0 l/m 0 min 0 min 0,0 UV-I 70 W/m 17,7 km/h (3 Bft)
15.08.2014 10:20 14,9 C 14,4 C 92 % 1011,4 hPa 0,0 l/m 0 min 0 min 0,0 UV-I 67 W/m 17,7 km/h (3 Bft)
15.08.2014 10:22 14,8 C 13,9 C 92 % 1011,4 hPa 0,0 l/m 0 min 0 min 0,0 UV-I 75 W/m 28,2 km/h (4 Bft)
15.08.2014 10:24 14,8 C 13,9 C 92 % 1011,4 hPa 0,0 l/m 0 min 2 min 0,0 UV-I 85 W/m 24,7 km/h (4 Bft)
15.08.2014 10:26 14,8 C 13,9 C 92 % 1011,4 hPa 0,0 l/m 0 min 2 min 0,0 UV-I 89 W/m 14,2 km/h (3 Bft)
15.08.2014 10:28 14,8 C 13,9 C 92 % 1011,5 hPa 0,0 l/m 0 min 2 min 0,0 UV-I 97 W/m 10,7 km/h (2 Bft)
15.08.2014 10:30 14,8 C 13,9 C 92 % 1011,4 hPa 0,0 l/m 0 min 2 min 0,0 UV-I 107 W/m 0,0 km/h (0 Bft)
15.08.2014 10:32 14,8 C 13,9 C 92 % 1011,5 hPa 0,0 l/m 0 min 2 min 0,0 UV-I 109 W/m 10,7 km/h (2 Bft)
15.08.2014 10:34 14,9 C 13,9 C 93 % 1011,4 hPa 0,0 l/m 0 min 2 min 0,0 UV-I 118 W/m 0,0 km/h (0 Bft)
15.08.2014 10:36 14,9 C 13,9 C 95 % 1011,4 hPa 0,0 l/m 0 min 2 min 0,0 UV-I 123 W/m 0,0 km/h (0 Bft)
15.08.2014 10:38 15,0 C 13,9 C 93 % 1011,5 hPa 0,0 l/m 0 min 2 min 0,0 UV-I 129 W/m 17,7 km/h (3 Bft)
15.08.2014 10:40 15,0 C 13,9 C 93 % 1011,4 hPa 0,0 l/m 0 min 2 min 0,0 UV-I 136 W/m 10,7 km/h (2 Bft)
15.08.2014 10:42 15,1 C 13,9 C 93 % 1011,5 hPa 0,0 l/m 0 min 2 min 0,0 UV-I 144 W/m 0,0 km/h (0 Bft)
15.08.2014 10:44 15,2 C 14,4 C 93 % 1011,5 hPa 0,0 l/m 0 min 2 min 0,0 UV-I 150 W/m 0,0 km/h (0 Bft)
15.08.2014 10:46 15,1 C 13,9 C 93 % 1011,5 hPa 0,0 l/m 0 min 2 min 0,0 UV-I 148 W/m 21,3 km/h (4 Bft)
15.08.2014 10:48 15,0 C 13,9 C 93 % 1011,5 hPa 0,0 l/m 0 min 2 min 0,0 UV-I 139 W/m 14,2 km/h (3 Bft)
15.08.2014 10:50 15,2 C 14,4 C 93 % 1011,5 hPa 0,0 l/m 0 min 0 min 0,0 UV-I 131 W/m 0,0 km/h (0 Bft)
15.08.2014 10:52 15,2 C 14,4 C 93 % 1011,5 hPa 0,0 l/m 0 min 2 min 0,0 UV-I 126 W/m 14,2 km/h (3 Bft)
15.08.2014 10:54 15,2 C 14,4 C 93 % 1011,5 hPa 0,0 l/m 0 min 2 min 0,0 UV-I 129 W/m 0,0 km/h (0 Bft)
15.08.2014 10:56 15,2 C 14,4 C 93 % 1011,5 hPa 0,0 l/m 0 min 0 min 0,0 UV-I 130 W/m 0,0 km/h (0 Bft)
15.08.2014 10:58 15,3 C 14,4 C 93 % 1011,5 hPa 0,0 l/m 0 min 0 min 0,0 UV-I 135 W/m 3,5 km/h (1 Bft)
15.08.2014 11:00 15,3 C 14,4 C 93 % 1011,5 hPa 0,0 l/m 0 min 0 min 0,0 UV-I 154 W/m 17,7 km/h (3 Bft)
15.08.2014 11:02 15,3 C 14,4 C 93 % 1011,5 hPa 0,0 l/m 0 min 0 min 0,0 UV-I 169 W/m 14,2 km/h (3 Bft)
15.08.2014 11:04 15,3 C 14,4 C 93 % 1011,6 hPa 0,0 l/m 0 min 0 min 0,0 UV-I 171 W/m 17,7 km/h (3 Bft)
15.08.2014 11:06 15,3 C 15,0 C 92 % 1011,5 hPa 0,0 l/m 0 min 0 min 0,2 UV-I 187 W/m 21,3 km/h (4 Bft)
15.08.2014 11:08 15,4 C 15,0 C 92 % 1011,5 hPa 0,0 l/m 0 min 0 min 0,7 UV-I 215 W/m 21,3 km/h (4 Bft)
15.08.2014 11:10 15,5 C 15,0 C 92 % 1011,5 hPa 0,0 l/m 0 min 0 min 0,7 UV-I 223 W/m 17,7 km/h (3 Bft)
15.08.2014 11:12 15,6 C 15,6 C 92 % 1011,5 hPa 0,0 l/m 0 min 0 min 0,7 UV-I 213 W/m 21,3 km/h (4 Bft)
15.08.2014 11:14 15,6 C 15,6 C 92 % 1011,5 hPa 0,0 l/m 0 min 0 min 0,6 UV-I 203 W/m 24,7 km/h (4 Bft)
15.08.2014 11:16 15,6 C 15,6 C 91 % 1011,5 hPa 0,0 l/m 0 min 0 min 0,1 UV-I 166 W/m 14,2 km/h (3 Bft)
15.08.2014 11:18 15,7 C 15,6 C 91 % 1011,6 hPa 0,0 l/m 0 min 0 min 0,0 UV-I 146 W/m 3,5 km/h (1 Bft)
15.08.2014 11:20 15,7 C 15,6 C 91 % 1011,6 hPa 0,0 l/m 0 min 0 min 0,0 UV-I 135 W/m 10,7 km/h (2 Bft)
15.08.2014 11:22 15,7 C 15,6 C 91 % 1011,6 hPa 0,0 l/m 0 min 0 min 0,0 UV-I 132 W/m 14,2 km/h (3 Bft)
15.08.2014 11:24 15,7 C 15,6 C 91 % 1011,6 hPa 0,0 l/m 0 min 0 min 0,0 UV-I 133 W/m 10,7 km/h (2 Bft)
15.08.2014 11:26 15,7 C 15,6 C 91 % 1011,6 hPa 0,0 l/m 0 min 0 min 0,0 UV-I 124 W/m 10,7 km/h (2 Bft)
15.08.2014 11:28 15,7 C 15,6 C 91 % 1011,6 hPa 0,0 l/m 0 min 0 min 0,0 UV-I 158 W/m 21,3 km/h (4 Bft)
15.08.2014 11:30 15,7 C 15,6 C 91 % 1011,6 hPa 0,0 l/m 0 min 0 min 0,5 UV-I 179 W/m 31,7 km/h (5 Bft)
15.08.2014 11:32 15,6 C 15,6 C 91 % 1011,7 hPa 0,0 l/m 0 min 0 min 0,6 UV-I 183 W/m 24,7 km/h (4 Bft)
15.08.2014 11:34 15,6 C 15,6 C 91 % 1011,6 hPa 0,0 l/m 0 min 0 min 0,6 UV-I 185 W/m 21,3 km/h (4 Bft)
15.08.2014 11:36 15,6 C 15,6 C 91 % 1011,6 hPa 0,0 l/m 0 min 0 min 0,6 UV-I 190 W/m 24,7 km/h (4 Bft)
15.08.2014 11:38 15,6 C 15,6 C 91 % 1011,6 hPa 0,0 l/m 0 min 0 min 0,6 UV-I 194 W/m 21,3 km/h (4 Bft)
15.08.2014 11:40 15,6 C 15,6 C 91 % 1011,7 hPa 0,0 l/m 0 min 2 min 0,6 UV-I 199 W/m 21,3 km/h (4 Bft)
15.08.2014 11:42 15,6 C 15,6 C 92 % 1011,6 hPa 0,0 l/m 0 min 0 min 0,7 UV-I 205 W/m 21,3 km/h (4 Bft)
15.08.2014 11:44 15,6 C 15,0 C 92 % 1011,7 hPa 0,0 l/m 0 min 0 min 0,7 UV-I 202 W/m 17,7 km/h (3 Bft)
15.08.2014 11:46 15,6 C 15,6 C 92 % 1011,6 hPa 0,0 l/m 0 min 2 min 0,6 UV-I 194 W/m 17,7 km/h (3 Bft)
15.08.2014 11:48 15,8 C 15,6 C 92 % 1011,6 hPa 0,0 l/m 0 min 0 min 0,7 UV-I 204 W/m 24,7 km/h (4 Bft)
15.08.2014 11:50 15,7 C 15,6 C 92 % 1011,6 hPa 0,0 l/m 0 min 0 min 0,8 UV-I 208 W/m 24,7 km/h (4 Bft)
15.08.2014 11:52 15,8 C 15,6 C 92 % 1011,6 hPa 0,0 l/m 0 min 0 min 0,8 UV-I 209 W/m 14,2 km/h (3 Bft)
15.08.2014 11:54 15,9 C 16,1 C 92 % 1011,6 hPa 0,0 l/m 0 min 0 min 0,7 UV-I 197 W/m 14,2 km/h (3 Bft)
15.08.2014 11:56 15,9 C 16,1 C 92 % 1011,7 hPa 0,0 l/m 0 min 0 min 0,7 UV-I 195 W/m 31,7 km/h (5 Bft)
15.08.2014 11:58 15,8 C 16,1 C 91 % 1011,6 hPa 0,0 l/m 0 min 0 min 0,7 UV-I 185 W/m 42,4 km/h (6 Bft)
15.08.2014 12:00 15,7 C 16,1 C 91 % 1011,6 hPa 0,0 l/m 0 min 2 min 0,7 UV-I 194 W/m 38,9 km/h (6 Bft)
15.08.2014 12:02 15,7 C 16,1 C 90 % 1011,6 hPa 0,0 l/m 0 min 2 min 0,9 UV-I 213 W/m 35,4 km/h (5 Bft)
15.08.2014 12:06 15,7 C 16,1 C 90 % 1011,7 hPa 0,0 l/m 0 min 0 min 1,1 UV-I 255 W/m 35,4 km/h (5 Bft)
15.08.2014 12:08 15,8 C 16,1 C 90 % 1011,6 hPa 0,0 l/m 0 min 0 min 1,3 UV-I 265 W/m 28,2 km/h (4 Bft)
15.08.2014 12:10 15,8 C 16,1 C 90 % 1011,7 hPa 0,0 l/m 0 min 2 min 1,3 UV-I 269 W/m 31,7 km/h (5 Bft)
15.08.2014 12:12 15,8 C 16,1 C 90 % 1011,6 hPa 0,0 l/m 0 min 2 min 1,3 UV-I 272 W/m 35,4 km/h (5 Bft)
15.08.2014 12:14 15,8 C 15,6 C 90 % 1011,7 hPa 0,0 l/m 0 min 2 min 1,2 UV-I 252 W/m 28,2 km/h (4 Bft)
15.08.2014 12:16 15,7 C 15,6 C 90 % 1011,7 hPa 0,0 l/m 0 min 2 min 1,1 UV-I 252 W/m 17,7 km/h (3 Bft)
15.08.2014 12:18 15,9 C 15,6 C 92 % 1011,7 hPa 0,0 l/m 0 min 2 min 1,3 UV-I 275 W/m 31,7 km/h (5 Bft)
15.08.2014 12:20 16,0 C 15,0 C 92 % 1011,6 hPa 0,0 l/m 0 min 2 min 1,3 UV-I 269 W/m 31,7 km/h (5 Bft)
15.08.2014 12:22 16,0 C 15,0 C 92 % 1011,6 hPa 0,0 l/m 0 min 2 min 1,2 UV-I 235 W/m 31,7 km/h (5 Bft)
15.08.2014 12:24 15,8 C 15,0 C 92 % 1011,7 hPa 0,0 l/m 0 min 2 min 0,5 UV-I 169 W/m 24,7 km/h (4 Bft)
15.08.2014 12:26 15,7 C 14,4 C 92 % 1011,7 hPa 0,0 l/m 0 min 2 min 0,0 UV-I 135 W/m 24,7 km/h (4 Bft)
15.08.2014 12:28 15,6 C 14,4 C 92 % 1011,7 hPa 0,0 l/m 0 min 2 min 0,0 UV-I 159 W/m 24,7 km/h (4 Bft)
15.08.2014 12:30 15,6 C 14,4 C 92 % 1011,7 hPa 0,0 l/m 0 min 2 min 0,6 UV-I 201 W/m 35,4 km/h (5 Bft)
15.08.2014 12:32 15,6 C 14,4 C 93 % 1011,6 hPa 0,0 l/m 0 min 2 min 1,1 UV-I 257 W/m 31,7 km/h (5 Bft)
15.08.2014 12:34 15,7 C 15,0 C 93 % 1011,6 hPa 0,0 l/m 0 min 2 min 1,4 UV-I 317 W/m 28,2 km/h (4 Bft)
15.08.2014 12:36 15,9 C 15,6 C 94 % 1011,7 hPa 0,0 l/m 0 min 2 min 1,6 UV-I 346 W/m 17,7 km/h (3 Bft)
15.08.2014 12:38 15,9 C 15,6 C 94 % 1011,6 hPa 0,0 l/m 0 min 0 min 1,6 UV-I 337 W/m 17,7 km/h (3 Bft)
15.08.2014 12:40 16,1 C 15,6 C 94 % 1011,6 hPa 0,0 l/m 0 min 2 min 1,8 UV-I 347 W/m 21,3 km/h (4 Bft)
15.08.2014 12:42 16,1 C 15,6 C 93 % 1011,6 hPa 0,0 l/m 0 min 2 min 1,9 UV-I 369 W/m 24,7 km/h (4 Bft)
15.08.2014 12:44 16,1 C 15,6 C 93 % 1011,6 hPa 0,0 l/m 2 min 0 min 1,9 UV-I 384 W/m 24,7 km/h (4 Bft)
15.08.2014 12:46 16,2 C 15,6 C 93 % 1011,6 hPa 0,0 l/m 0 min 0 min 2,0 UV-I 361 W/m 24,7 km/h (4 Bft)
15.08.2014 12:48 16,3 C 15,6 C 92 % 1011,6 hPa 0,0 l/m 0 min 0 min 2,0 UV-I 367 W/m 42,4 km/h (6 Bft)
15.08.2014 12:50 16,2 C 15,6 C 91 % 1011,6 hPa 0,0 l/m 2 min 0 min 2,3 UV-I 431 W/m 35,4 km/h (5 Bft)
15.08.2014 12:52 16,3 C 15,6 C 90 % 1011,6 hPa 0,0 l/m 2 min 0 min 2,2 UV-I 504 W/m 42,4 km/h (6 Bft)
15.08.2014 12:54 16,4 C 16,1 C 91 % 1011,6 hPa 0,0 l/m 2 min 0 min 2,6 UV-I 512 W/m 28,2 km/h (4 Bft)
15.08.2014 12:56 16,7 C 16,1 C 90 % 1011,6 hPa 0,0 l/m 2 min 0 min 2,6 UV-I 574 W/m 28,2 km/h (4 Bft)
15.08.2014 12:58 16,9 C 16,7 C 90 % 1011,6 hPa 0,0 l/m 2 min 0 min 2,4 UV-I 414 W/m 28,2 km/h (4 Bft)
15.08.2014 13:00 16,9 C 16,7 C 90 % 1011,6 hPa 0,0 l/m 2 min 0 min 2,8 UV-I 485 W/m 28,2 km/h (4 Bft)
15.08.2014 13:02 16,9 C 16,7 C 88 % 1011,6 hPa 0,0 l/m 2 min 0 min 2,6 UV-I 418 W/m 38,9 km/h (6 Bft)
15.08.2014 13:04 16,8 C 16,7 C 87 % 1011,6 hPa 0,0 l/m 2 min 0 min 2,6 UV-I 468 W/m 35,4 km/h (5 Bft)
15.08.2014 13:06 16,7 C 16,7 C 87 % 1011,6 hPa 0,0 l/m 2 min 0 min 2,4 UV-I 489 W/m 42,4 km/h (6 Bft)
15.08.2014 13:08 16,8 C 16,7 C 88 % 1011,7 hPa 0,0 l/m 2 min 0 min 2,6 UV-I 494 W/m 35,4 km/h (5 Bft)
15.08.2014 13:10 16,9 C 16,7 C 88 % 1011,7 hPa 0,0 l/m 2 min 0 min 2,4 UV-I 414 W/m 35,4 km/h (5 Bft)
15.08.2014 13:12 16,9 C 17,2 C 87 % 1011,8 hPa 0,0 l/m 2 min 0 min 2,2 UV-I 424 W/m 24,7 km/h (4 Bft)
15.08.2014 13:14 17,0 C 17,2 C 87 % 1011,7 hPa 0,0 l/m 0 min 0 min 2,0 UV-I 369 W/m 31,7 km/h (5 Bft)
15.08.2014 13:16 17,1 C 17,8 C 87 % 1011,6 hPa 0,0 l/m 2 min 0 min 2,3 UV-I 442 W/m 24,7 km/h (4 Bft)
15.08.2014 13:18 17,2 C 18,3 C 87 % 1011,7 hPa 0,0 l/m 2 min 0 min 2,6 UV-I 487 W/m 28,2 km/h (4 Bft)
15.08.2014 13:20 17,2 C 18,3 C 86 % 1011,7 hPa 0,0 l/m 2 min 0 min 2,5 UV-I 499 W/m 31,7 km/h (5 Bft)
15.08.2014 13:22 17,4 C 18,3 C 86 % 1011,7 hPa 0,0 l/m 2 min 0 min 2,5 UV-I 475 W/m 35,4 km/h (5 Bft)
15.08.2014 13:24 17,5 C 18,9 C 85 % 1011,7 hPa 0,0 l/m 2 min 0 min 2,7 UV-I 611 W/m 35,4 km/h (5 Bft)
15.08.2014 13:26 17,6 C 18,9 C 85 % 1011,6 hPa 0,0 l/m 2 min 0 min 2,5 UV-I 532 W/m 31,7 km/h (5 Bft)
15.08.2014 13:28 17,6 C 18,3 C 85 % 1011,6 hPa 0,0 l/m 0 min 0 min 2,1 UV-I 383 W/m 42,4 km/h (6 Bft)
15.08.2014 13:30 17,4 C 17,8 C 85 % 1011,7 hPa 0,0 l/m 0 min 0 min 1,9 UV-I 340 W/m 38,9 km/h (6 Bft)
15.08.2014 13:32 17,2 C 17,2 C 85 % 1011,7 hPa 0,0 l/m 0 min 0 min 1,7 UV-I 312 W/m 31,7 km/h (5 Bft)
15.08.2014 13:34 17,1 C 17,2 C 86 % 1011,8 hPa 0,0 l/m 0 min 0 min 1,5 UV-I 290 W/m 31,7 km/h (5 Bft)
15.08.2014 13:36 17,1 C 17,2 C 87 % 1011,8 hPa 0,0 l/m 0 min 0 min 1,4 UV-I 279 W/m 28,2 km/h (4 Bft)
15.08.2014 13:38 16,9 C 17,2 C 87 % 1011,8 hPa 0,0 l/m 0 min 0 min 1,3 UV-I 260 W/m 28,2 km/h (4 Bft)
15.08.2014 13:40 16,8 C 16,7 C 87 % 1011,8 hPa 0,0 l/m 0 min 0 min 0,9 UV-I 213 W/m 38,9 km/h (6 Bft)
15.08.2014 13:42 16,7 C 16,7 C 87 % 1011,8 hPa 0,0 l/m 0 min 0 min 0,5 UV-I 165 W/m 38,9 km/h (6 Bft)
15.08.2014 13:44 16,6 C 16,7 C 87 % 1011,8 hPa 0,0 l/m 0 min 2 min 0,6 UV-I 172 W/m 31,7 km/h (5 Bft)
15.08.2014 13:46 16,5 C 16,1 C 87 % 1011,8 hPa 0,0 l/m 0 min 2 min 1,0 UV-I 205 W/m 35,4 km/h (5 Bft)
15.08.2014 13:48 16,3 C 16,1 C 87 % 1011,8 hPa 0,0 l/m 0 min 2 min 1,3 UV-I 235 W/m 28,2 km/h (4 Bft)
15.08.2014 13:50 16,3 C 16,1 C 87 % 1011,9 hPa 0,0 l/m 0 min 0 min 1,6 UV-I 256 W/m 38,9 km/h (6 Bft)
15.08.2014 13:52 16,2 C 16,1 C 88 % 1011,8 hPa 0,0 l/m 0 min 0 min 1,9 UV-I 297 W/m 28,2 km/h (4 Bft)
15.08.2014 13:54 16,2 C 16,7 C 88 % 1011,8 hPa 0,0 l/m 0 min 0 min 2,1 UV-I 338 W/m 31,7 km/h (5 Bft)
15.08.2014 13:56 16,3 C 16,7 C 87 % 1011,8 hPa 0,0 l/m 0 min 0 min 2,2 UV-I 351 W/m 21,3 km/h (4 Bft)
15.08.2014 13:58 16,4 C 16,7 C 88 % 1011,9 hPa 0,0 l/m 0 min 0 min 2,3 UV-I 346 W/m 24,7 km/h (4 Bft)
15.08.2014 14:00 16,6 C 17,2 C 88 % 1011,9 hPa 0,0 l/m 0 min 0 min 2,3 UV-I 345 W/m 17,7 km/h (3 Bft)
15.08.2014 14:02 16,8 C 17,2 C 88 % 1011,9 hPa 0,0 l/m 2 min 0 min 2,6 UV-I 411 W/m 17,7 km/h (3 Bft)
15.08.2014 14:04 17,0 C 17,8 C 88 % 1012,0 hPa 0,0 l/m 2 min 0 min 3,2 UV-I 542 W/m 17,7 km/h (3 Bft)
15.08.2014 14:06 17,6 C 18,3 C 90 % 1012,0 hPa 0,0 l/m 2 min 0 min 4,0 UV-I 795 W/m 21,3 km/h (4 Bft)
15.08.2014 14:08 18,2 C 18,9 C 88 % 1011,9 hPa 0,0 l/m 2 min 0 min 4,0 UV-I 819 W/m 31,7 km/h (5 Bft)
15.08.2014 14:10 18,4 C 18,9 C 85 % 1011,9 hPa 0,0 l/m 2 min 0 min 4,0 UV-I 826 W/m 35,4 km/h (5 Bft)
15.08.2014 14:12 18,7 C 19,4 C 85 % 1011,9 hPa 0,0 l/m 2 min 0 min 3,6 UV-I 830 W/m 17,7 km/h (3 Bft)
15.08.2014 14:14 18,7 C 19,4 C 83 % 1011,9 hPa 0,0 l/m 2 min 0 min 2,6 UV-I 831 W/m 31,7 km/h (5 Bft)
15.08.2014 14:16 18,4 C 18,9 C 82 % 1011,9 hPa 0,0 l/m 2 min 0 min 2,9 UV-I 831 W/m 31,7 km/h (5 Bft)
15.08.2014 14:18 18,3 C 18,9 C 83 % 1011,8 hPa 0,0 l/m 2 min 0 min 3,0 UV-I 423 W/m 21,3 km/h (4 Bft)
15.08.2014 14:20 18,3 C 19,4 C 84 % 1011,9 hPa 0,0 l/m 0 min 0 min 3,6 UV-I 376 W/m 31,7 km/h (5 Bft)
15.08.2014 14:22 18,6 C 19,4 C 82 % 1011,8 hPa 0,0 l/m 2 min 0 min 3,9 UV-I 680 W/m 38,9 km/h (6 Bft)
15.08.2014 14:24 18,7 C 19,4 C 82 % 1011,8 hPa 0,0 l/m 2 min 0 min 3,9 UV-I 786 W/m 28,2 km/h (4 Bft)
15.08.2014 14:26 18,9 C 19,4 C 80 % 1011,7 hPa 0,0 l/m 2 min 0 min 3,9 UV-I 768 W/m 24,7 km/h (4 Bft)
15.08.2014 14:28 19,3 C 19,4 C 80 % 1011,7 hPa 0,0 l/m 2 min 0 min 3,8 UV-I 736 W/m 35,4 km/h (5 Bft)
15.08.2014 14:30 19,3 C 19,4 C 78 % 1011,7 hPa 0,0 l/m 2 min 0 min 3,1 UV-I 689 W/m 28,2 km/h (4 Bft)
15.08.2014 14:32 19,3 C 19,4 C 79 % 1011,8 hPa 0,0 l/m 2 min 0 min 2,7 UV-I 601 W/m 21,3 km/h (4 Bft)
15.08.2014 14:34 19,2 C 19,4 C 80 % 1011,7 hPa 0,0 l/m 2 min 0 min 2,9 UV-I 387 W/m 28,2 km/h (4 Bft)
15.08.2014 14:36 19,2 C 19,4 C 79 % 1011,7 hPa 0,0 l/m 2 min 0 min 3,2 UV-I 603 W/m 28,2 km/h (4 Bft)
15.08.2014 14:38 19,3 C 19,4 C 80 % 1011,6 hPa 0,0 l/m 2 min 0 min 2,3 UV-I 417 W/m 24,7 km/h (4 Bft)
15.08.2014 14:40 19,3 C 19,4 C 78 % 1011,6 hPa 0,0 l/m 0 min 0 min 2,6 UV-I 308 W/m 35,4 km/h (5 Bft)
15.08.2014 14:42 19,4 C 19,4 C 77 % 1011,6 hPa 0,0 l/m 2 min 0 min 3,6 UV-I 777 W/m 24,7 km/h (4 Bft)
15.08.2014 14:44 19,4 C 19,4 C 77 % 1011,6 hPa 0,0 l/m 2 min 0 min 3,0 UV-I 823 W/m 24,7 km/h (4 Bft)
15.08.2014 14:46 19,3 C 18,9 C 75 % 1011,6 hPa 0,0 l/m 2 min 0 min 2,3 UV-I 479 W/m 38,9 km/h (6 Bft)
15.08.2014 14:48 19,2 C 19,4 C 77 % 1011,5 hPa 0,0 l/m 2 min 0 min 3,5 UV-I 600 W/m 28,2 km/h (4 Bft)
15.08.2014 14:50 19,6 C 19,4 C 78 % 1011,5 hPa 0,0 l/m 2 min 0 min 2,8 UV-I 796 W/m 21,3 km/h (4 Bft)
15.08.2014 14:52 19,5 C 19,4 C 74 % 1011,5 hPa 0,0 l/m 2 min 0 min 2,6 UV-I 796 W/m 21,3 km/h (4 Bft)
15.08.2014 14:54 19,7 C 19,4 C 75 % 1011,5 hPa 0,0 l/m 2 min 0 min 2,3 UV-I 532 W/m 24,7 km/h (4 Bft)
15.08.2014 14:56 19,6 C 19,4 C 74 % 1011,5 hPa 0,0 l/m 0 min 0 min 1,9 UV-I 269 W/m 24,7 km/h (4 Bft)
15.08.2014 14:58 19,4 C 18,9 C 74 % 1011,6 hPa 0,0 l/m 0 min 0 min 1,7 UV-I 245 W/m 24,7 km/h (4 Bft)
15.08.2014 15:00 19,3 C 18,9 C 75 % 1011,6 hPa 0,0 l/m 0 min 0 min 1,5 UV-I 250 W/m 31,7 km/h (5 Bft)
15.08.2014 15:02 19,1 C 18,9 C 75 % 1011,5 hPa 0,0 l/m 0 min 0 min 1,6 UV-I 274 W/m 28,2 km/h (4 Bft)
15.08.2014 15:04 19,1 C 18,9 C 75 % 1011,5 hPa 0,0 l/m 0 min 0 min 2,4 UV-I 294 W/m 28,2 km/h (4 Bft)
15.08.2014 15:06 19,1 C 18,9 C 74 % 1011,5 hPa 0,0 l/m 0 min 0 min 1,8 UV-I 252 W/m 38,9 km/h (6 Bft)
15.08.2014 15:08 19,0 C 18,9 C 75 % 1011,5 hPa 0,0 l/m 0 min 0 min 1,8 UV-I 251 W/m 28,2 km/h (4 Bft)
15.08.2014 15:10 18,9 C 18,3 C 75 % 1011,5 hPa 0,0 l/m 0 min 0 min 1,7 UV-I 232 W/m 24,7 km/h (4 Bft)
15.08.2014 15:12 18,7 C 18,3 C 75 % 1011,5 hPa 0,0 l/m 0 min 0 min 1,6 UV-I 220 W/m 24,7 km/h (4 Bft)
15.08.2014 15:14 18,6 C 18,3 C 77 % 1011,5 hPa 0,0 l/m 0 min 0 min 1,6 UV-I 260 W/m 24,7 km/h (4 Bft)
15.08.2014 15:16 18,7 C 18,9 C 78 % 1011,5 hPa 0,0 l/m 0 min 0 min 2,7 UV-I 337 W/m 24,7 km/h (4 Bft)
15.08.2014 15:18 19,3 C 20,0 C 78 % 1011,6 hPa 0,0 l/m 2 min 0 min 3,1 UV-I 811 W/m 24,7 km/h (4 Bft)
15.08.2014 15:20 19,5 C 19,4 C 75 % 1011,6 hPa 0,0 l/m 2 min 0 min 1,8 UV-I 645 W/m 28,2 km/h (4 Bft)
15.08.2014 15:22 19,4 C 19,4 C 75 % 1011,7 hPa 0,0 l/m 0 min 0 min 1,1 UV-I 189 W/m 31,7 km/h (5 Bft)
15.08.2014 15:24 19,2 C 18,9 C 75 % 1011,8 hPa 0,0 l/m 0 min 0 min 0,4 UV-I 137 W/m 67,1 km/h (8 Bft)
15.08.2014 15:26 18,9 C 17,8 C 76 % 1011,9 hPa 0,0 l/m 0 min 0 min 0,0 UV-I 73 W/m 60,2 km/h (7 Bft)
15.08.2014 15:28 18,4 C 16,1 C 77 % 1011,9 hPa 0,2 l/m 0 min 2 min 0,0 UV-I 38 W/m 63,7 km/h (8 Bft)
15.08.2014 15:30 17,8 C 14,4 C 79 % 1012,0 hPa 0,4 l/m 0 min 2 min 0,0 UV-I 32 W/m 53,0 km/h (7 Bft)
15.08.2014 15:32 17,2 C 13,9 C 84 % 1012,1 hPa 1,0 l/m 0 min 2 min 0,0 UV-I 28 W/m 38,9 km/h (6 Bft)
15.08.2014 15:34 16,7 C 13,9 C 86 % 1012,1 hPa 0,2 l/m 0 min 2 min 0,0 UV-I 31 W/m 42,4 km/h (6 Bft)
15.08.2014 15:36 16,1 C 13,3 C 87 % 1012,2 hPa 0,4 l/m 0 min 2 min 0,0 UV-I 33 W/m 42,4 km/h (6 Bft)
15.08.2014 15:38 15,7 C 13,3 C 88 % 1012,3 hPa 0,2 l/m 0 min 2 min 0,0 UV-I 33 W/m 24,7 km/h (4 Bft)
15.08.2014 15:40 15,3 C 13,3 C 90 % 1012,3 hPa 0,2 l/m 0 min 2 min 0,0 UV-I 33 W/m 24,7 km/h (4 Bft)
15.08.2014 15:42 15,1 C 13,3 C 90 % 1012,4 hPa 0,4 l/m 0 min 2 min 0,0 UV-I 33 W/m 42,4 km/h (6 Bft)
15.08.2014 15:44 14,8 C 13,3 C 91 % 1012,4 hPa 0,2 l/m 0 min 2 min 0,0 UV-I 35 W/m 31,7 km/h (5 Bft)
15.08.2014 15:46 14,6 C 12,8 C 92 % 1012,4 hPa 0,2 l/m 0 min 2 min 0,0 UV-I 37 W/m 24,7 km/h (4 Bft)
15.08.2014 15:48 14,4 C 12,8 C 92 % 1012,4 hPa 0,2 l/m 0 min 2 min 0,0 UV-I 38 W/m 21,3 km/h (4 Bft)
15.08.2014 15:50 14,2 C 12,8 C 93 % 1012,4 hPa 0,2 l/m 0 min 2 min 0,0 UV-I 41 W/m 17,7 km/h (3 Bft)
15.08.2014 15:52 14,2 C 12,8 C 93 % 1012,4 hPa 0,0 l/m 0 min 2 min 0,0 UV-I 43 W/m 21,3 km/h (4 Bft)
15.08.2014 15:54 14,2 C 12,8 C 93 % 1012,4 hPa 0,0 l/m 0 min 2 min 0,0 UV-I 47 W/m 17,7 km/h (3 Bft)
15.08.2014 15:56 14,2 C 12,8 C 94 % 1012,4 hPa 0,0 l/m 0 min 2 min 0,0 UV-I 51 W/m 7,1 km/h (2 Bft)
15.08.2014 15:58 14,2 C 12,8 C 94 % 1012,3 hPa 0,2 l/m 0 min 2 min 0,0 UV-I 57 W/m 7,1 km/h (2 Bft)
15.08.2014 16:00 14,2 C 12,8 C 94 % 1012,3 hPa 0,0 l/m 0 min 2 min 0,0 UV-I 63 W/m 14,2 km/h (3 Bft)
15.08.2014 16:02 14,2 C 12,8 C 95 % 1012,3 hPa 0,0 l/m 0 min 2 min 0,0 UV-I 67 W/m 0,0 km/h (0 Bft)
15.08.2014 16:04 14,2 C 12,8 C 95 % 1012,3 hPa 0,0 l/m 0 min 2 min 0,0 UV-I 71 W/m 0,0 km/h (0 Bft)
15.08.2014 16:06 14,2 C 13,3 C 95 % 1012,3 hPa 0,0 l/m 0 min 2 min 0,0 UV-I 73 W/m 0,0 km/h (0 Bft)
15.08.2014 16:08 14,2 C 13,3 C 95 % 1012,2 hPa 0,2 l/m 0 min 2 min 0,0 UV-I 76 W/m 10,7 km/h (2 Bft)
15.08.2014 16:10 14,3 C 13,3 C 96 % 1012,2 hPa 0,0 l/m 0 min 2 min 0,0 UV-I 76 W/m 0,0 km/h (0 Bft)
15.08.2014 16:12 14,3 C 13,3 C 96 % 1012,3 hPa 0,0 l/m 0 min 2 min 0,0 UV-I 76 W/m 14,2 km/h (3 Bft)
15.08.2014 16:14 14,4 C 13,3 C 96 % 1012,2 hPa 0,0 l/m 0 min 2 min 0,0 UV-I 76 W/m 14,2 km/h (3 Bft)
15.08.2014 16:16 14,4 C 13,3 C 96 % 1012,3 hPa 0,0 l/m 0 min 2 min 0,0 UV-I 77 W/m 10,7 km/h (2 Bft)
15.08.2014 16:18 14,6 C 13,3 C 96 % 1012,2 hPa 0,0 l/m 0 min 2 min 0,0 UV-I 78 W/m 0,0 km/h (0 Bft)
15.08.2014 16:20 14,6 C 13,3 C 96 % 1012,2 hPa 0,0 l/m 0 min 0 min 0,0 UV-I 80 W/m 3,5 km/h (1 Bft)
15.08.2014 16:22 14,6 C 13,9 C 96 % 1012,2 hPa 0,0 l/m 0 min 0 min 0,0 UV-I 82 W/m 0,0 km/h (0 Bft)
15.08.2014 16:24 14,7 C 13,9 C 96 % 1012,3 hPa 0,0 l/m 0 min 0 min 0,0 UV-I 84 W/m 14,2 km/h (3 Bft)
15.08.2014 16:26 14,7 C 13,9 C 97 % 1012,3 hPa 0,0 l/m 0 min 0 min 0,0 UV-I 84 W/m 17,7 km/h (3 Bft)
15.08.2014 16:28 14,7 C 13,9 C 97 % 1012,3 hPa 0,0 l/m 0 min 0 min 0,0 UV-I 86 W/m 14,2 km/h (3 Bft)
15.08.2014 16:30 14,7 C 13,9 C 97 % 1012,3 hPa 0,0 l/m 0 min 0 min 0,0 UV-I 89 W/m 3,5 km/h (1 Bft)
15.08.2014 16:32 14,7 C 13,9 C 97 % 1012,4 hPa 0,0 l/m 0 min 0 min 0,0 UV-I 93 W/m 7,1 km/h (2 Bft)
15.08.2014 16:34 14,8 C 13,9 C 97 % 1012,3 hPa 0,0 l/m 0 min 0 min 0,0 UV-I 99 W/m 0,0 km/h (0 Bft)
15.08.2014 16:36 14,8 C 13,9 C 97 % 1012,4 hPa 0,0 l/m 0 min 0 min 0,0 UV-I 108 W/m 14,2 km/h (3 Bft)
15.08.2014 16:38 14,7 C 13,9 C 97 % 1012,3 hPa 0,0 l/m 0 min 0 min 0,0 UV-I 115 W/m 14,2 km/h (3 Bft)
15.08.2014 16:40 14,8 C 13,9 C 97 % 1012,3 hPa 0,0 l/m 0 min 0 min 0,0 UV-I 124 W/m 17,7 km/h (3 Bft)
15.08.2014 16:42 14,8 C 13,9 C 97 % 1012,3 hPa 0,0 l/m 0 min 0 min 0,0 UV-I 130 W/m 14,2 km/h (3 Bft)
15.08.2014 16:44 14,9 C 14,4 C 97 % 1012,3 hPa 0,0 l/m 0 min 0 min 0,0 UV-I 138 W/m 10,7 km/h (2 Bft)
15.08.2014 16:46 14,9 C 14,4 C 97 % 1012,3 hPa 0,0 l/m 0 min 0 min 0,0 UV-I 146 W/m 7,1 km/h (2 Bft)
15.08.2014 16:48 15,0 C 14,4 C 97 % 1012,3 hPa 0,0 l/m 0 min 0 min 0,0 UV-I 151 W/m 10,7 km/h (2 Bft)
15.08.2014 16:50 15,1 C 14,4 C 97 % 1012,3 hPa 0,0 l/m 0 min 0 min 0,0 UV-I 156 W/m 7,1 km/h (2 Bft)
15.08.2014 16:52 15,2 C 15,0 C 97 % 1012,4 hPa 0,0 l/m 0 min 0 min 0,0 UV-I 162 W/m 10,7 km/h (2 Bft)
15.08.2014 16:54 15,2 C 15,0 C 97 % 1012,3 hPa 0,0 l/m 0 min 0 min 0,0 UV-I 172 W/m 0,0 km/h (0 Bft)
15.08.2014 16:56 15,3 C 15,0 C 97 % 1012,4 hPa 0,0 l/m 0 min 0 min 0,0 UV-I 183 W/m 17,7 km/h (3 Bft)
15.08.2014 16:58 15,4 C 15,0 C 97 % 1012,4 hPa 0,0 l/m 0 min 2 min 0,0 UV-I 190 W/m 14,2 km/h (3 Bft)
15.08.2014 17:00 15,5 C 15,0 C 97 % 1012,4 hPa 0,0 l/m 0 min 2 min 0,0 UV-I 203 W/m 10,7 km/h (2 Bft)
15.08.2014 17:02 15,7 C 15,6 C 97 % 1012,3 hPa 0,0 l/m 0 min 0 min 0,0 UV-I 221 W/m 0,0 km/h (0 Bft)
15.08.2014 17:04 15,6 C 15,6 C 97 % 1012,3 hPa 0,0 l/m 0 min 2 min 0,0 UV-I 238 W/m 3,5 km/h (1 Bft)
15.08.2014 17:06 15,8 C 15,6 C 97 % 1012,3 hPa 0,0 l/m 0 min 2 min 0,5 UV-I 248 W/m 0,0 km/h (0 Bft)
15.08.2014 17:08 15,8 C 15,6 C 97 % 1012,3 hPa 0,0 l/m 0 min 2 min 0,5 UV-I 254 W/m 24,7 km/h (4 Bft)
15.08.2014 17:10 15,8 C 15,6 C 97 % 1012,2 hPa 0,0 l/m 2 min 2 min 0,6 UV-I 283 W/m 21,3 km/h (4 Bft)
15.08.2014 17:12 15,9 C 15,6 C 97 % 1012,3 hPa 0,0 l/m 2 min 2 min 0,6 UV-I 293 W/m 35,4 km/h (5 Bft)
15.08.2014 17:14 16,1 C 15,6 C 97 % 1012,3 hPa 0,0 l/m 2 min 2 min 0,5 UV-I 271 W/m 24,7 km/h (4 Bft)
15.08.2014 17:16 16,1 C 15,6 C 97 % 1012,4 hPa 0,0 l/m 2 min 2 min 0,6 UV-I 279 W/m 17,7 km/h (3 Bft)
15.08.2014 17:18 16,2 C 15,6 C 97 % 1012,3 hPa 0,0 l/m 2 min 2 min 0,6 UV-I 286 W/m 17,7 km/h (3 Bft)
15.08.2014 17:20 16,2 C 15,6 C 96 % 1012,3 hPa 0,0 l/m 2 min 2 min 0,6 UV-I 303 W/m 7,1 km/h (2 Bft)
15.08.2014 17:22 16,4 C 15,6 C 96 % 1012,2 hPa 0,0 l/m 2 min 2 min 0,6 UV-I 316 W/m 14,2 km/h (3 Bft)
15.08.2014 17:24 16,4 C 15,6 C 96 % 1012,3 hPa 0,0 l/m 2 min 2 min 0,6 UV-I 308 W/m 14,2 km/h (3 Bft)
15.08.2014 17:26 16,4 C 15,6 C 95 % 1012,3 hPa 0,0 l/m 2 min 0 min 0,6 UV-I 273 W/m 21,3 km/h (4 Bft)
15.08.2014 17:28 16,4 C 15,6 C 95 % 1012,3 hPa 0,0 l/m 2 min 2 min 0,5 UV-I 256 W/m 17,7 km/h (3 Bft)
15.08.2014 17:30 16,4 C 15,6 C 94 % 1012,3 hPa 0,0 l/m 2 min 0 min 0,5 UV-I 252 W/m 17,7 km/h (3 Bft)
15.08.2014 17:32 16,5 C 15,6 C 94 % 1012,3 hPa 0,0 l/m 2 min 0 min 0,5 UV-I 257 W/m 10,7 km/h (2 Bft)
15.08.2014 17:34 16,6 C 15,6 C 94 % 1012,3 hPa 0,0 l/m 2 min 0 min 0,2 UV-I 271 W/m 10,7 km/h (2 Bft)
15.08.2014 17:36 16,7 C 15,6 C 94 % 1012,4 hPa 0,0 l/m 2 min 0 min 0,0 UV-I 307 W/m 7,1 km/h (2 Bft)
15.08.2014 17:38 16,8 C 15,6 C 94 % 1012,4 hPa 0,0 l/m 2 min 0 min 0,0 UV-I 332 W/m 10,7 km/h (2 Bft)
15.08.2014 17:40 16,9 C 16,1 C 94 % 1012,4 hPa 0,0 l/m 2 min 0 min 0,0 UV-I 354 W/m 28,2 km/h (4 Bft)
15.08.2014 17:42 17,0 C 16,1 C 94 % 1012,4 hPa 0,0 l/m 2 min 0 min 0,0 UV-I 362 W/m 7,1 km/h (2 Bft)
15.08.2014 17:44 17,1 C 16,1 C 94 % 1012,4 hPa 0,0 l/m 2 min 0 min 0,0 UV-I 368 W/m 10,7 km/h (2 Bft)
15.08.2014 17:46 17,1 C 16,1 C 93 % 1012,5 hPa 0,0 l/m 2 min 0 min 0,0 UV-I 376 W/m 17,7 km/h (3 Bft)
15.08.2014 17:48 17,1 C 16,1 C 92 % 1012,5 hPa 0,0 l/m 2 min 0 min 0,0 UV-I 382 W/m 21,3 km/h (4 Bft)
15.08.2014 17:50 17,2 C 16,7 C 92 % 1012,5 hPa 0,0 l/m 2 min 0 min 0,0 UV-I 394 W/m 24,7 km/h (4 Bft)
15.08.2014 17:52 17,4 C 16,7 C 92 % 1012,5 hPa 0,0 l/m 2 min 0 min 0,0 UV-I 380 W/m 10,7 km/h (2 Bft)
15.08.2014 17:54 17,6 C 16,7 C 92 % 1012,5 hPa 0,0 l/m 2 min 0 min 0,0 UV-I 395 W/m 14,2 km/h (3 Bft)
15.08.2014 17:56 17,6 C 16,7 C 91 % 1012,6 hPa 0,0 l/m 2 min 0 min 0,0 UV-I 341 W/m 10,7 km/h (2 Bft)
15.08.2014 17:58 17,6 C 16,7 C 90 % 1012,6 hPa 0,0 l/m 2 min 0 min 0,0 UV-I 236 W/m 24,7 km/h (4 Bft)
15.08.2014 18:00 17,5 C 16,7 C 90 % 1012,6 hPa 0,0 l/m 2 min 0 min 0,0 UV-I 224 W/m 28,2 km/h (4 Bft)
15.08.2014 18:02 17,4 C 16,7 C 90 % 1012,7 hPa 0,0 l/m 2 min 0 min 0,0 UV-I 232 W/m 24,7 km/h (4 Bft)
15.08.2014 18:06 17,3 C 16,7 C 90 % 1012,6 hPa 0,0 l/m 2 min 0 min 0,0 UV-I 242 W/m 17,7 km/h (3 Bft)
15.08.2014 18:08 17,3 C 16,7 C 90 % 1012,6 hPa 0,0 l/m 2 min 0 min 0,0 UV-I 245 W/m 21,3 km/h (4 Bft)
15.08.2014 18:10 17,3 C 16,7 C 90 % 1012,6 hPa 0,0 l/m 2 min 0 min 0,0 UV-I 221 W/m 24,7 km/h (4 Bft)
15.08.2014 18:12 17,3 C 16,7 C 90 % 1012,7 hPa 0,0 l/m 0 min 0 min 0,0 UV-I 188 W/m 14,2 km/h (3 Bft)
15.08.2014 18:14 17,3 C 16,7 C 90 % 1012,7 hPa 0,0 l/m 0 min 0 min 0,0 UV-I 168 W/m 14,2 km/h (3 Bft)
15.08.2014 18:16 17,3 C 16,1 C 90 % 1012,8 hPa 0,0 l/m 0 min 0 min 0,0 UV-I 159 W/m 28,2 km/h (4 Bft)
15.08.2014 18:18 17,2 C 16,1 C 90 % 1012,8 hPa 0,0 l/m 0 min 0 min 0,0 UV-I 156 W/m 24,7 km/h (4 Bft)
15.08.2014 18:20 17,1 C 16,1 C 90 % 1012,9 hPa 0,0 l/m 0 min 0 min 0,0 UV-I 155 W/m 17,7 km/h (3 Bft)
15.08.2014 18:22 17,1 C 16,1 C 90 % 1012,8 hPa 0,0 l/m 0 min 0 min 0,0 UV-I 134 W/m 17,7 km/h (3 Bft)
15.08.2014 18:24 17,0 C 16,1 C 90 % 1012,9 hPa 0,0 l/m 0 min 0 min 0,0 UV-I 117 W/m 17,7 km/h (3 Bft)
15.08.2014 18:26 16,9 C 15,6 C 90 % 1012,9 hPa 0,0 l/m 0 min 0 min 0,0 UV-I 103 W/m 21,3 km/h (4 Bft)
15.08.2014 18:28 16,8 C 15,6 C 90 % 1012,9 hPa 0,0 l/m 0 min 0 min 0,0 UV-I 94 W/m 21,3 km/h (4 Bft)
15.08.2014 18:30 16,7 C 15,6 C 90 % 1012,9 hPa 0,0 l/m 0 min 0 min 0,0 UV-I 86 W/m 21,3 km/h (4 Bft)
15.08.2014 18:32 16,6 C 15,6 C 90 % 1013,0 hPa 0,0 l/m 0 min 0 min 0,0 UV-I 84 W/m 14,2 km/h (3 Bft)
15.08.2014 18:34 16,5 C 15,0 C 90 % 1012,9 hPa 0,0 l/m 0 min 0 min 0,0 UV-I 83 W/m 21,3 km/h (4 Bft)
15.08.2014 18:36 16,5 C 15,0 C 91 % 1013,0 hPa 0,0 l/m 0 min 0 min 0,0 UV-I 87 W/m 21,3 km/h (4 Bft)
15.08.2014 18:38 16,6 C 15,0 C 91 % 1013,0 hPa 0,0 l/m 0 min 0 min 0,0 UV-I 101 W/m 17,7 km/h (3 Bft)
15.08.2014 18:40 16,5 C 15,6 C 91 % 1012,9 hPa 0,0 l/m 0 min 0 min 0,0 UV-I 118 W/m 17,7 km/h (3 Bft)
15.08.2014 18:42 16,4 C 15,6 C 91 % 1013,0 hPa 0,0 l/m 0 min 0 min 0,0 UV-I 132 W/m 14,2 km/h (3 Bft)
15.08.2014 18:44 16,4 C 15,6 C 91 % 1013,1 hPa 0,0 l/m 0 min 0 min 0,0 UV-I 135 W/m 17,7 km/h (3 Bft)
15.08.2014 18:46 16,5 C 15,6 C 92 % 1013,0 hPa 0,0 l/m 0 min 0 min 0,0 UV-I 139 W/m 14,2 km/h (3 Bft)
15.08.2014 18:48 16,5 C 15,6 C 92 % 1013,1 hPa 0,0 l/m 0 min 0 min 0,0 UV-I 140 W/m 24,7 km/h (4 Bft)
15.08.2014 18:50 16,5 C 15,6 C 92 % 1013,1 hPa 0,0 l/m 0 min 0 min 0,0 UV-I 133 W/m 24,7 km/h (4 Bft)
15.08.2014 18:52 16,5 C 15,6 C 91 % 1013,1 hPa 0,0 l/m 0 min 0 min 0,0 UV-I 127 W/m 21,3 km/h (4 Bft)
15.08.2014 18:54 16,5 C 15,6 C 91 % 1013,1 hPa 0,0 l/m 0 min 0 min 0,0 UV-I 122 W/m 17,7 km/h (3 Bft)
15.08.2014 18:56 16,6 C 15,6 C 91 % 1013,1 hPa 0,0 l/m 0 min 0 min 0,0 UV-I 119 W/m 21,3 km/h (4 Bft)
15.08.2014 18:58 16,5 C 15,6 C 90 % 1013,1 hPa 0,0 l/m 0 min 0 min 0,0 UV-I 115 W/m 14,2 km/h (3 Bft)
15.08.2014 19:00 16,6 C 15,6 C 90 % 1013,0 hPa 0,0 l/m 0 min 0 min 0,0 UV-I 111 W/m 14,2 km/h (3 Bft)
15.08.2014 19:02 16,6 C 15,6 C 90 % 1013,0 hPa 0,0 l/m 0 min 0 min 0,0 UV-I 114 W/m 17,7 km/h (3 Bft)
15.08.2014 19:04 16,6 C 15,6 C 90 % 1013,1 hPa 0,0 l/m 0 min 0 min 0,0 UV-I 115 W/m 7,1 km/h (2 Bft)
15.08.2014 19:06 16,6 C 15,6 C 90 % 1013,0 hPa 0,0 l/m 0 min 0 min 0,0 UV-I 113 W/m 17,7 km/h (3 Bft)
15.08.2014 19:08 16,6 C 15,6 C 90 % 1013,0 hPa 0,0 l/m 0 min 0 min 0,0 UV-I 118 W/m 17,7 km/h (3 Bft)
15.08.2014 19:10 16,6 C 15,6 C 90 % 1013,0 hPa 0,0 l/m 2 min 0 min 0,0 UV-I 153 W/m 17,7 km/h (3 Bft)
15.08.2014 19:12 16,7 C 15,6 C 90 % 1013,0 hPa 0,0 l/m 2 min 0 min 0,0 UV-I 199 W/m 7,1 km/h (2 Bft)
15.08.2014 19:14 16,7 C 15,6 C 90 % 1013,0 hPa 0,0 l/m 2 min 0 min 0,0 UV-I 190 W/m 14,2 km/h (3 Bft)
15.08.2014 19:16 16,9 C 15,6 C 89 % 1013,1 hPa 0,0 l/m 2 min 0 min 0,0 UV-I 172 W/m 10,7 km/h (2 Bft)
15.08.2014 19:18 16,9 C 15,0 C 89 % 1013,0 hPa 0,0 l/m 2 min 0 min 0,0 UV-I 151 W/m 10,7 km/h (2 Bft)
15.08.2014 19:20 17,0 C 15,0 C 89 % 1013,0 hPa 0,0 l/m 2 min 0 min 0,0 UV-I 133 W/m 14,2 km/h (3 Bft)
15.08.2014 19:22 16,9 C 15,0 C 89 % 1013,0 hPa 0,0 l/m 0 min 0 min 0,0 UV-I 93 W/m 21,3 km/h (4 Bft)
15.08.2014 19:24 16,9 C 15,0 C 89 % 1013,1 hPa 0,0 l/m 0 min 0 min 0,0 UV-I 61 W/m 17,7 km/h (3 Bft)
15.08.2014 19:26 16,9 C 15,0 C 88 % 1013,1 hPa 0,0 l/m 0 min 0 min 0,0 UV-I 56 W/m 21,3 km/h (4 Bft)
15.08.2014 19:28 16,8 C 15,0 C 88 % 1013,1 hPa 0,0 l/m 0 min 0 min 0,0 UV-I 49 W/m 17,7 km/h (3 Bft)
15.08.2014 19:30 16,7 C 15,0 C 88 % 1013,2 hPa 0,0 l/m 0 min 0 min 0,0 UV-I 43 W/m 17,7 km/h (3 Bft)
15.08.2014 19:32 16,7 C 15,0 C 89 % 1013,2 hPa 0,0 l/m 0 min 0 min 0,0 UV-I 37 W/m 17,7 km/h (3 Bft)
15.08.2014 19:34 16,6 C 15,0 C 89 % 1013,3 hPa 0,0 l/m 0 min 0 min 0,0 UV-I 33 W/m 14,2 km/h (3 Bft)
15.08.2014 19:36 16,4 C 14,4 C 89 % 1013,3 hPa 0,0 l/m 0 min 0 min 0,0 UV-I 30 W/m 24,7 km/h (4 Bft)
15.08.2014 19:38 16,3 C 14,4 C 90 % 1013,3 hPa 0,0 l/m 0 min 0 min 0,0 UV-I 27 W/m 17,7 km/h (3 Bft)
15.08.2014 19:40 16,3 C 14,4 C 90 % 1013,3 hPa 0,0 l/m 0 min 0 min 0,0 UV-I 24 W/m 21,3 km/h (4 Bft)
15.08.2014 19:42 16,2 C 14,4 C 90 % 1013,2 hPa 0,0 l/m 0 min 0 min 0,0 UV-I 22 W/m 14,2 km/h (3 Bft)
15.08.2014 19:44 16,2 C 14,4 C 90 % 1013,3 hPa 0,0 l/m 0 min 0 min 0,0 UV-I 21 W/m 10,7 km/h (2 Bft)
15.08.2014 19:46 16,1 C 14,4 C 90 % 1013,3 hPa 0,0 l/m 0 min 0 min 0,0 UV-I 19 W/m 17,7 km/h (3 Bft)
15.08.2014 19:48 16,0 C 14,4 C 91 % 1013,4 hPa 0,0 l/m 0 min 0 min 0,0 UV-I 18 W/m 14,2 km/h (3 Bft)
15.08.2014 19:50 15,9 C 14,4 C 91 % 1013,4 hPa 0,0 l/m 0 min 0 min 0,0 UV-I 18 W/m 14,2 km/h (3 Bft)
15.08.2014 19:52 15,9 C 13,9 C 91 % 1013,4 hPa 0,0 l/m 0 min 0 min 0,0 UV-I 18 W/m 21,3 km/h (4 Bft)
15.08.2014 19:54 15,8 C 13,9 C 91 % 1013,4 hPa 0,0 l/m 0 min 0 min 0,0 UV-I 18 W/m 10,7 km/h (2 Bft)
15.08.2014 19:56 15,8 C 14,4 C 91 % 1013,5 hPa 0,0 l/m 0 min 0 min 0,0 UV-I 17 W/m 14,2 km/h (3 Bft)
15.08.2014 19:58 15,8 C 13,9 C 92 % 1013,5 hPa 0,0 l/m 0 min 0 min 0,0 UV-I 18 W/m 14,2 km/h (3 Bft)
15.08.2014 20:00 15,7 C 13,9 C 92 % 1013,5 hPa 0,0 l/m 0 min 0 min 0,0 UV-I 17 W/m 0,0 km/h (0 Bft)
15.08.2014 20:02 15,7 C 13,9 C 92 % 1013,5 hPa 0,0 l/m 0 min 0 min 0,0 UV-I 16 W/m 17,7 km/h (3 Bft)
15.08.2014 20:04 15,7 C 13,9 C 92 % 1013,6 hPa 0,0 l/m 0 min 0 min 0,0 UV-I 16 W/m 21,3 km/h (4 Bft)
15.08.2014 20:06 15,7 C 13,9 C 92 % 1013,6 hPa 0,0 l/m 0 min 0 min 0,0 UV-I 16 W/m 21,3 km/h (4 Bft)
15.08.2014 20:08 15,6 C 13,9 C 92 % 1013,6 hPa 0,0 l/m 0 min 0 min 0,0 UV-I 14 W/m 17,7 km/h (3 Bft)
15.08.2014 20:10 15,6 C 13,9 C 92 % 1013,6 hPa 0,0 l/m 0 min 0 min 0,0 UV-I 14 W/m 10,7 km/h (2 Bft)
15.08.2014 20:12 15,6 C 13,9 C 92 % 1013,7 hPa 0,0 l/m 0 min 0 min 0,0 UV-I 13 W/m 21,3 km/h (4 Bft)
15.08.2014 20:14 15,6 C 13,9 C 92 % 1013,6 hPa 0,0 l/m 0 min 0 min 0,0 UV-I 12 W/m 21,3 km/h (4 Bft)
15.08.2014 20:16 15,6 C 13,9 C 92 % 1013,7 hPa 0,0 l/m 0 min 0 min 0,0 UV-I 12 W/m 17,7 km/h (3 Bft)
15.08.2014 20:18 15,6 C 13,9 C 92 % 1013,8 hPa 0,0 l/m 0 min 2 min 0,0 UV-I 12 W/m 21,3 km/h (4 Bft)
15.08.2014 20:20 15,6 C 13,9 C 92 % 1013,7 hPa 0,0 l/m 0 min 2 min 0,0 UV-I 12 W/m 17,7 km/h (3 Bft)
15.08.2014 20:22 15,6 C 13,9 C 92 % 1013,7 hPa 0,0 l/m 0 min 0 min 0,0 UV-I 12 W/m 0,0 km/h (0 Bft)
15.08.2014 20:24 15,6 C 13,9 C 92 % 1013,7 hPa 0,0 l/m 0 min 0 min 0,0 UV-I 12 W/m 21,3 km/h (4 Bft)
15.08.2014 20:26 15,6 C 13,9 C 92 % 1013,7 hPa 0,0 l/m 0 min 0 min 0,0 UV-I 11 W/m 17,7 km/h (3 Bft)
15.08.2014 20:28 15,4 C 13,9 C 92 % 1013,9 hPa 0,0 l/m 0 min 0 min 0,0 UV-I 11 W/m 21,3 km/h (4 Bft)
15.08.2014 20:30 15,4 C 13,9 C 92 % 1013,8 hPa 0,0 l/m 0 min 0 min 0,0 UV-I 11 W/m 10,7 km/h (2 Bft)
15.08.2014 20:32 15,3 C 13,9 C 92 % 1013,8 hPa 0,0 l/m 0 min 0 min 0,0 UV-I 11 W/m 10,7 km/h (2 Bft)
15.08.2014 20:34 15,3 C 13,9 C 92 % 1013,8 hPa 0,0 l/m 0 min 0 min 0,0 UV-I 12 W/m 10,7 km/h (2 Bft)
15.08.2014 20:36 15,2 C 13,9 C 92 % 1013,8 hPa 0,0 l/m 0 min 0 min 0,0 UV-I 12 W/m 10,7 km/h (2 Bft)
15.08.2014 20:38 15,2 C 13,9 C 92 % 1013,8 hPa 0,0 l/m 0 min 0 min 0,0 UV-I 12 W/m 10,7 km/h (2 Bft)
15.08.2014 20:40 15,2 C 13,9 C 92 % 1013,9 hPa 0,0 l/m 0 min 0 min 0,0 UV-I 12 W/m 14,2 km/h (3 Bft)
15.08.2014 20:42 15,1 C 13,9 C 92 % 1013,9 hPa 0,0 l/m 0 min 0 min 0,0 UV-I 12 W/m 14,2 km/h (3 Bft)
15.08.2014 20:44 15,1 C 13,9 C 92 % 1013,9 hPa 0,0 l/m 0 min 0 min 0,0 UV-I 11 W/m 17,7 km/h (3 Bft)
15.08.2014 20:46 14,9 C 13,9 C 92 % 1014,0 hPa 0,0 l/m 0 min 0 min 0,0 UV-I 11 W/m 21,3 km/h (4 Bft)
15.08.2014 20:48 14,9 C 13,9 C 92 % 1014,0 hPa 0,0 l/m 0 min 0 min 0,0 UV-I 9 W/m 17,7 km/h (3 Bft)
15.08.2014 20:50 14,8 C 13,3 C 92 % 1014,1 hPa 0,0 l/m 0 min 0 min 0,0 UV-I 7 W/m 14,2 km/h (3 Bft)
15.08.2014 20:52 14,8 C 13,3 C 92 % 1014,0 hPa 0,0 l/m 0 min 0 min 0,0 UV-I 0 W/m 14,2 km/h (3 Bft)
15.08.2014 20:54 14,7 C 13,3 C 92 % 1014,1 hPa 0,0 l/m 0 min 0 min 0,0 UV-I 0 W/m 0,0 km/h (0 Bft)
15.08.2014 20:56 14,7 C 13,3 C 92 % 1014,1 hPa 0,0 l/m 0 min 0 min 0,0 UV-I 0 W/m 0,0 km/h (0 Bft)
15.08.2014 20:58 14,6 C 13,3 C 93 % 1014,1 hPa 0,0 l/m 0 min 0 min 0,0 UV-I 0 W/m 10,7 km/h (2 Bft)
15.08.2014 21:00 14,5 C 13,3 C 92 % 1014,1 hPa 0,0 l/m 0 min 0 min 0,0 UV-I 0 W/m 3,5 km/h (1 Bft)
15.08.2014 21:02 14,4 C 13,3 C 92 % 1014,2 hPa 0,0 l/m 0 min 0 min 0,0 UV-I 0 W/m 7,1 km/h (2 Bft)
15.08.2014 21:04 14,4 C 13,3 C 92 % 1014,2 hPa 0,0 l/m 0 min 0 min 0,0 UV-I 0 W/m 10,7 km/h (2 Bft)
15.08.2014 21:06 14,3 C 12,8 C 92 % 1014,2 hPa 0,0 l/m 0 min 2 min 0,0 UV-I 0 W/m 10,7 km/h (2 Bft)
15.08.2014 21:08 14,3 C 12,8 C 93 % 1014,2 hPa 0,0 l/m 0 min 2 min 0,0 UV-I 0 W/m 10,7 km/h (2 Bft)
15.08.2014 21:10 14,3 C 12,8 C 93 % 1014,3 hPa 0,0 l/m 0 min 2 min 0,0 UV-I 0 W/m 10,7 km/h (2 Bft)
15.08.2014 21:12 14,3 C 12,8 C 93 % 1014,3 hPa 0,0 l/m 0 min 2 min 0,0 UV-I 0 W/m 3,5 km/h (1 Bft)
15.08.2014 21:14 14,2 C 12,8 C 93 % 1014,3 hPa 0,0 l/m 0 min 2 min 0,0 UV-I 0 W/m 14,2 km/h (3 Bft)
15.08.2014 21:16 14,2 C 12,8 C 93 % 1014,4 hPa 0,0 l/m 0 min 2 min 0,0 UV-I 0 W/m 3,5 km/h (1 Bft)
15.08.2014 21:18 14,2 C 12,8 C 93 % 1014,4 hPa 0,0 l/m 0 min 0 min 0,0 UV-I 0 W/m 17,7 km/h (3 Bft)
15.08.2014 21:20 14,2 C 12,8 C 93 % 1014,5 hPa 0,0 l/m 0 min 0 min 0,0 UV-I 0 W/m 17,7 km/h (3 Bft)
15.08.2014 21:22 14,2 C 12,8 C 93 % 1014,5 hPa 0,0 l/m 0 min 0 min 0,0 UV-I 0 W/m 17,7 km/h (3 Bft)
15.08.2014 21:24 14,2 C 12,8 C 93 % 1014,6 hPa 0,0 l/m 0 min 0 min 0,0 UV-I 0 W/m 21,3 km/h (4 Bft)
15.08.2014 21:26 14,2 C 12,8 C 93 % 1014,6 hPa 0,0 l/m 0 min 0 min 0,0 UV-I 0 W/m 3,5 km/h (1 Bft)
15.08.2014 21:28 14,2 C 12,8 C 93 % 1014,7 hPa 0,0 l/m 0 min 0 min 0,0 UV-I 0 W/m 24,7 km/h (4 Bft)
15.08.2014 21:30 14,2 C 12,8 C 93 % 1014,7 hPa 0,0 l/m 0 min 0 min 0,0 UV-I 0 W/m 21,3 km/h (4 Bft)
15.08.2014 21:32 14,2 C 12,8 C 93 % 1014,7 hPa 0,0 l/m 0 min 0 min 0,0 UV-I 0 W/m 17,7 km/h (3 Bft)
15.08.2014 21:34 14,2 C 12,8 C 93 % 1014,6 hPa 0,0 l/m 0 min 0 min 0,0 UV-I 0 W/m 24,7 km/h (4 Bft)
15.08.2014 21:36 14,2 C 12,8 C 93 % 1014,6 hPa 0,0 l/m 0 min 0 min 0,0 UV-I 0 W/m 24,7 km/h (4 Bft)
15.08.2014 21:38 14,2 C 12,8 C 93 % 1014,7 hPa 0,0 l/m 0 min 0 min 0,0 UV-I 0 W/m 21,3 km/h (4 Bft)
15.08.2014 21:40 14,2 C 12,8 C 93 % 1014,6 hPa 0,0 l/m 0 min 0 min 0,0 UV-I 0 W/m 14,2 km/h (3 Bft)
15.08.2014 21:42 14,2 C 12,8 C 93 % 1014,6 hPa 0,0 l/m 0 min 0 min 0,0 UV-I 0 W/m 10,7 km/h (2 Bft)
15.08.2014 21:44 14,2 C 12,8 C 93 % 1014,7 hPa 0,0 l/m 0 min 2 min 0,0 UV-I 0 W/m 10,7 km/h (2 Bft)
15.08.2014 21:46 14,2 C 12,8 C 93 % 1014,7 hPa 0,0 l/m 0 min 0 min 0,0 UV-I 0 W/m 14,2 km/h (3 Bft)
15.08.2014 21:48 14,2 C 12,8 C 93 % 1014,7 hPa 0,0 l/m 0 min 0 min 0,0 UV-I 0 W/m 14,2 km/h (3 Bft)
15.08.2014 21:50 14,2 C 12,8 C 93 % 1014,7 hPa 0,0 l/m 0 min 0 min 0,0 UV-I 0 W/m 17,7 km/h (3 Bft)
15.08.2014 21:52 14,2 C 12,8 C 94 % 1014,7 hPa 0,0 l/m 0 min 0 min 0,0 UV-I 0 W/m 17,7 km/h (3 Bft)
15.08.2014 21:54 14,2 C 12,8 C 94 % 1014,8 hPa 0,0 l/m 0 min 0 min 0,0 UV-I 0 W/m 17,7 km/h (3 Bft)
15.08.2014 21:56 14,2 C 12,8 C 94 % 1014,8 hPa 0,0 l/m 0 min 0 min 0,0 UV-I 0 W/m 14,2 km/h (3 Bft)
15.08.2014 21:58 14,2 C 12,8 C 94 % 1014,9 hPa 0,0 l/m 0 min 0 min 0,0 UV-I 0 W/m 10,7 km/h (2 Bft)
15.08.2014 22:00 14,2 C 12,8 C 94 % 1014,9 hPa 0,0 l/m 0 min 0 min 0,0 UV-I 0 W/m 7,1 km/h (2 Bft)
15.08.2014 22:02 14,2 C 12,8 C 94 % 1014,9 hPa 0,0 l/m 0 min 0 min 0,0 UV-I 0 W/m 7,1 km/h (2 Bft)
15.08.2014 22:04 14,2 C 12,8 C 94 % 1015,0 hPa 0,0 l/m 0 min 0 min 0,0 UV-I 0 W/m 14,2 km/h (3 Bft)
15.08.2014 22:06 14,2 C 12,8 C 94 % 1015,0 hPa 0,0 l/m 0 min 0 min 0,0 UV-I 0 W/m 14,2 km/h (3 Bft)
15.08.2014 22:08 14,2 C 12,8 C 94 % 1015,0 hPa 0,0 l/m 0 min 0 min 0,0 UV-I 0 W/m 14,2 km/h (3 Bft)
15.08.2014 22:10 14,2 C 12,8 C 94 % 1015,0 hPa 0,0 l/m 0 min 0 min 0,0 UV-I 0 W/m 21,3 km/h (4 Bft)
15.08.2014 22:12 14,2 C 12,8 C 94 % 1015,1 hPa 0,0 l/m 0 min 0 min 0,0 UV-I 0 W/m 21,3 km/h (4 Bft)
15.08.2014 22:14 14,2 C 12,8 C 94 % 1015,1 hPa 0,0 l/m 0 min 0 min 0,0 UV-I 0 W/m 21,3 km/h (4 Bft)
15.08.2014 22:16 14,2 C 12,8 C 94 % 1015,1 hPa 0,0 l/m 0 min 0 min 0,0 UV-I 0 W/m 17,7 km/h (3 Bft)
15.08.2014 22:18 14,2 C 12,8 C 94 % 1015,1 hPa 0,0 l/m 0 min 0 min 0,0 UV-I 0 W/m 10,7 km/h (2 Bft)
15.08.2014 22:20 14,2 C 12,8 C 94 % 1015,1 hPa 0,0 l/m 0 min 0 min 0,0 UV-I 0 W/m 14,2 km/h (3 Bft)
15.08.2014 22:22 14,2 C 12,8 C 95 % 1015,1 hPa 0,0 l/m 0 min 0 min 0,0 UV-I 0 W/m 17,7 km/h (3 Bft)
15.08.2014 22:24 14,2 C 12,8 C 95 % 1015,1 hPa 0,0 l/m 0 min 0 min 0,0 UV-I 0 W/m 17,7 km/h (3 Bft)
15.08.2014 22:26 14,2 C 12,8 C 95 % 1015,1 hPa 0,0 l/m 0 min 0 min 0,0 UV-I 0 W/m 17,7 km/h (3 Bft)
15.08.2014 22:28 14,2 C 12,8 C 95 % 1015,1 hPa 0,0 l/m 0 min 0 min 0,0 UV-I 0 W/m 28,2 km/h (4 Bft)
15.08.2014 22:30 14,2 C 12,8 C 95 % 1015,1 hPa 0,0 l/m 0 min 0 min 0,0 UV-I 0 W/m 28,2 km/h (4 Bft)
15.08.2014 22:32 14,2 C 12,8 C 95 % 1015,1 hPa 0,0 l/m 0 min 0 min 0,0 UV-I 0 W/m 14,2 km/h (3 Bft)
15.08.2014 22:34 14,2 C 12,8 C 95 % 1015,1 hPa 0,0 l/m 0 min 0 min 0,0 UV-I 0 W/m 14,2 km/h (3 Bft)
15.08.2014 22:36 14,2 C 12,8 C 95 % 1015,1 hPa 0,0 l/m 0 min 0 min 0,0 UV-I 0 W/m 17,7 km/h (3 Bft)
15.08.2014 22:38 14,2 C 12,8 C 95 % 1015,2 hPa 0,0 l/m 0 min 0 min 0,0 UV-I 0 W/m 24,7 km/h (4 Bft)
15.08.2014 22:40 14,2 C 12,8 C 95 % 1015,2 hPa 0,0 l/m 0 min 0 min 0,0 UV-I 0 W/m 17,7 km/h (3 Bft)
15.08.2014 22:42 14,2 C 12,8 C 95 % 1015,2 hPa 0,0 l/m 0 min 2 min 0,0 UV-I 0 W/m 21,3 km/h (4 Bft)
15.08.2014 22:44 14,2 C 12,8 C 95 % 1015,2 hPa 0,0 l/m 0 min 2 min 0,0 UV-I 0 W/m 21,3 km/h (4 Bft)
15.08.2014 22:46 14,2 C 12,8 C 95 % 1015,2 hPa 0,0 l/m 0 min 2 min 0,0 UV-I 0 W/m 17,7 km/h (3 Bft)
15.08.2014 22:48 14,2 C 12,8 C 95 % 1015,3 hPa 0,0 l/m 0 min 2 min 0,0 UV-I 0 W/m 21,3 km/h (4 Bft)
15.08.2014 22:50 14,2 C 12,8 C 95 % 1015,3 hPa 0,2 l/m 0 min 2 min 0,0 UV-I 0 W/m 14,2 km/h (3 Bft)
15.08.2014 22:52 14,2 C 12,8 C 95 % 1015,3 hPa 0,0 l/m 0 min 2 min 0,0 UV-I 0 W/m 21,3 km/h (4 Bft)
15.08.2014 22:54 14,2 C 12,8 C 95 % 1015,3 hPa 0,2 l/m 0 min 2 min 0,0 UV-I 0 W/m 21,3 km/h (4 Bft)
15.08.2014 22:56 14,2 C 12,8 C 96 % 1015,3 hPa 0,0 l/m 0 min 2 min 0,0 UV-I 0 W/m 14,2 km/h (3 Bft)
15.08.2014 22:58 14,2 C 12,8 C 96 % 1015,4 hPa 0,0 l/m 0 min 0 min 0,0 UV-I 0 W/m 24,7 km/h (4 Bft)
15.08.2014 23:00 14,2 C 12,8 C 96 % 1015,3 hPa 0,0 l/m 0 min 0 min 0,0 UV-I 0 W/m 17,7 km/h (3 Bft)
15.08.2014 23:02 14,2 C 12,8 C 96 % 1015,4 hPa 0,0 l/m 0 min 0 min 0,0 UV-I 0 W/m 17,7 km/h (3 Bft)
15.08.2014 23:04 14,2 C 12,8 C 96 % 1015,4 hPa 0,0 l/m 0 min 0 min 0,0 UV-I 0 W/m 21,3 km/h (4 Bft)
15.08.2014 23:06 14,2 C 12,8 C 96 % 1015,4 hPa 0,0 l/m 0 min 0 min 0,0 UV-I 0 W/m 14,2 km/h (3 Bft)
15.08.2014 23:08 14,2 C 12,8 C 96 % 1015,4 hPa 0,0 l/m 0 min 0 min 0,0 UV-I 0 W/m 17,7 km/h (3 Bft)
15.08.2014 23:10 14,2 C 12,8 C 96 % 1015,4 hPa 0,0 l/m 0 min 0 min 0,0 UV-I 0 W/m 14,2 km/h (3 Bft)
15.08.2014 23:12 14,2 C 12,8 C 96 % 1015,4 hPa 0,0 l/m 0 min 0 min 0,0 UV-I 0 W/m 3,5 km/h (1 Bft)
15.08.2014 23:14 14,1 C 12,8 C 96 % 1015,4 hPa 0,0 l/m 0 min 0 min 0,0 UV-I 0 W/m 10,7 km/h (2 Bft)
15.08.2014 23:16 14,1 C 12,8 C 96 % 1015,4 hPa 0,0 l/m 0 min 2 min 0,0 UV-I 0 W/m 3,5 km/h (1 Bft)
15.08.2014 23:18 14,0 C 12,8 C 96 % 1015,4 hPa 0,0 l/m 0 min 0 min 0,0 UV-I 0 W/m 17,7 km/h (3 Bft)
15.08.2014 23:20 13,9 C 12,8 C 97 % 1015,5 hPa 0,0 l/m 0 min 0 min 0,0 UV-I 0 W/m 10,7 km/h (2 Bft)
15.08.2014 23:22 13,9 C 12,8 C 97 % 1015,4 hPa 0,0 l/m 0 min 0 min 0,0 UV-I 0 W/m 7,1 km/h (2 Bft)
15.08.2014 23:24 13,9 C 12,8 C 97 % 1015,5 hPa 0,0 l/m 0 min 0 min 0,0 UV-I 0 W/m 0,0 km/h (0 Bft)
15.08.2014 23:26 13,9 C 12,8 C 97 % 1015,5 hPa 0,0 l/m 0 min 0 min 0,0 UV-I 0 W/m 3,5 km/h (1 Bft)
15.08.2014 23:28 13,9 C 12,8 C 97 % 1015,5 hPa 0,0 l/m 0 min 0 min 0,0 UV-I 0 W/m 14,2 km/h (3 Bft)
15.08.2014 23:30 13,9 C 12,8 C 97 % 1015,5 hPa 0,0 l/m 0 min 0 min 0,0 UV-I 0 W/m 7,1 km/h (2 Bft)
15.08.2014 23:32 13,9 C 12,8 C 97 % 1015,5 hPa 0,0 l/m 0 min 0 min 0,0 UV-I 0 W/m 0,0 km/h (0 Bft)
15.08.2014 23:34 13,9 C 12,8 C 97 % 1015,6 hPa 0,0 l/m 0 min 0 min 0,0 UV-I 0 W/m 0,0 km/h (0 Bft)
15.08.2014 23:36 13,9 C 12,8 C 97 % 1015,5 hPa 0,0 l/m 0 min 0 min 0,0 UV-I 0 W/m 0,0 km/h (0 Bft)
15.08.2014 23:38 13,9 C 12,8 C 97 % 1015,6 hPa 0,0 l/m 0 min 0 min 0,0 UV-I 0 W/m 0,0 km/h (0 Bft)
15.08.2014 23:40 13,9 C 12,8 C 97 % 1015,6 hPa 0,0 l/m 0 min 0 min 0,0 UV-I 0 W/m 0,0 km/h (0 Bft)
15.08.2014 23:42 13,9 C 12,8 C 97 % 1015,7 hPa 0,0 l/m 0 min 0 min 0,0 UV-I 0 W/m 0,0 km/h (0 Bft)
15.08.2014 23:44 13,9 C 12,8 C 97 % 1015,7 hPa 0,0 l/m 0 min 0 min 0,0 UV-I 0 W/m 0,0 km/h (0 Bft)
15.08.2014 23:46 13,9 C 12,8 C 97 % 1015,6 hPa 0,0 l/m 0 min 0 min 0,0 UV-I 0 W/m 3,5 km/h (1 Bft)
15.08.2014 23:48 13,8 C 12,8 C 97 % 1015,7 hPa 0,0 l/m 0 min 0 min 0,0 UV-I 0 W/m 0,0 km/h (0 Bft)
15.08.2014 23:50 13,8 C 12,8 C 97 % 1015,8 hPa 0,0 l/m 0 min 0 min 0,0 UV-I 0 W/m 10,7 km/h (2 Bft)
15.08.2014 23:52 13,8 C 12,8 C 97 % 1015,8 hPa 0,0 l/m 0 min 0 min 0,0 UV-I 0 W/m 10,7 km/h (2 Bft)
15.08.2014 23:54 13,8 C 12,8 C 97 % 1015,8 hPa 0,0 l/m 0 min 0 min 0,0 UV-I 0 W/m 10,7 km/h (2 Bft)
15.08.2014 23:56 13,8 C 12,8 C 97 % 1015,9 hPa 0,0 l/m 0 min 0 min 0,0 UV-I 0 W/m 17,7 km/h (3 Bft)
15.08.2014 23:58 13,8 C 12,8 C 97 % 1015,8 hPa 0,0 l/m 0 min 0 min 0,0 UV-I 0 W/m 14,2 km/h (3 Bft)
_ Min-Zeit 04:18 04:00 14:52 04:52 - - - - - 00:08
Minimum _ 12,6 C 11,1 C 74 % 1010,1 hPa - - - - - 0,0 km/h (0 Bft)
_ Max-Zeit 14:54 15:18 16:26 23:56 15:32 12:44 07:22 14:06 14:14 15:24
Maximum _ 19,7 C 20,0 C 97 % 1015,9 hPa 1,0 l/m 2 min 2 min 4,0 UV-I 831 W/m 67,1 km/h
N-NW (8 Bft)
Durchschnitt _ 14,9 C 14,1 C 92 % 1011,8 hPa #4,6 l/m #2:44 h #3:26 h 1,7 UV-I 185 W/m 15,0 km/h (3 Bft)
© 2014 W. Hausmann